GFSFLT1_925_spd_000.txt.gz
Wind_Speed
20 24 24 25 25 29 32 33 33 31 29 28 27 27 27 26 25 24 22 19 17 15 13 11 10 12 10 10 9 9 9 8 8
17 23 26 27 26 32 33 33 33 33 31 29 29 27 26 26 25 25 21 18 17 14 12 10 11 12 11 10 11 11 11 10 9
18 20 24 26 26 33 36 35 35 34 33 31 28 28 27 27 26 24 22 20 20 19 13 10 10 11 11 12 10 11 13 12 11
15 18 22 24 26 34 35 35 35 34 31 31 30 29 30 28 26 24 23 22 20 14 14 13 11 10 11 13 12 13 16 15 12
10 13 18 22 23 28 33 37 35 34 33 31 31 33 31 28 25 25 25 23 20 19 16 17 17 7 10 14 13 14 18 17 14
8 8 14 18 20 22 28 34 34 36 34 34 32 30 28 27 28 28 26 30 29 25 23 22 23 20 20 22 19 19 20 19 17
10 9 11 16 18 20 25 30 31 31 33 32 31 29 28 27 27 26 28 29 33 31 29 30 31 33 31 17 20 22 22 19 17
12 12 14 18 20 18 17 24 27 28 29 27 27 26 25 25 22 23 26 30 38 40 38 41 37 37 26 20 24 23 24 20 19
15 16 16 19 19 19 20 24 25 24 23 23 21 21 22 20 22 25 32 31 36 41 48 46 40 34 25 22 24 24 24 21 19
18 18 18 20 20 17 17 22 22 21 20 20 21 21 22 24 25 29 30 29 33 39 37 35 29 21 18 26 24 24 24 22 21
18 16 15 15 16 15 19 20 21 20 20 21 22 22 23 24 26 27 29 29 32 33 31 27 22 16 19 26 26 22 23 22 18
13 12 12 14 17 20 23 23 23 23 22 22 23 22 24 25 27 25 24 27 29 31 30 28 25 19 19 23 23 23 25 24 20
10 13 14 15 23 24 25 25 26 25 24 24 24 25 26 27 26 26 27 25 23 25 25 25 23 19 21 23 21 22 25 27 25
10 14 16 25 25 23 24 25 25 22 22 21 22 23 25 26 27 26 25 24 22 19 18 18 18 20 24 22 25 19 23 26 23
18 20 19 24 23 22 20 20 20 19 17 17 18 20 21 22 22 20 20 22 21 20 19 18 16 19 19 21 21 21 19 22 24
18 19 15 21 19 18 16 14 13 14 14 16 18 19 20 19 18 17 17 19 17 17 17 17 16 18 19 21 15 14 17 17 17
14 13 12 16 15 13 12 11 13 14 14 15 17 18 17 16 17 17 17 17 15 14 15 14 16 18 11 9 11 10 8 11 12
12 12 11 10 9 10 10 11 11 12 12 14 15 15 17 18 16 16 13 9 9 12 5 5 8 8 9 11 11 11 13 13 13
8 10 10 7 8 9 9 11 12 13 14 16 17 15 13 13 13 13 12 9 5 8 4 7 6 7 6 3 7 10 17 16 11
9 12 9 5 5 6 9 11 14 13 13 12 14 13 13 13 11 12 12 12 13 12 5 5 6 6 9 8 8 10 12 9 6

GFSFLT1_925_spd_003.txt.gz
Wind_Speed
20 23 23 25 27 27 31 33 32 31 31 29 29 28 27 25 24 23 21 19 14 14 11 10 10 13 12 11 10 9 8 9 8
14 21 23 27 27 31 32 34 35 35 31 31 30 30 27 27 25 25 23 20 21 14 13 13 13 16 18 16 14 12 10 10 10
13 17 22 24 25 29 33 36 36 35 33 31 31 29 28 27 27 26 22 20 18 20 18 18 17 17 19 19 18 18 16 13 13
16 15 19 22 24 32 36 36 35 36 35 32 32 31 29 28 28 27 27 24 25 23 22 21 22 26 26 22 19 16 14 12 9
11 19 18 20 24 27 33 34 37 37 36 36 35 31 30 29 28 30 30 30 29 29 30 29 32 30 25 21 20 19 16 14 13
19 7 14 18 20 23 24 34 35 38 37 38 35 32 32 31 33 32 32 34 34 36 31 32 32 29 26 26 25 21 18 16 14
12 6 6 13 18 20 22 32 35 35 36 37 34 33 34 33 33 33 34 36 38 35 36 37 33 29 28 25 23 19 16 16 16
18 15 12 13 17 17 18 25 32 34 32 33 33 31 32 31 31 32 33 36 38 38 37 39 35 31 27 23 20 18 17 17 17
18 18 14 14 16 18 18 22 26 32 33 30 32 32 32 32 32 32 34 34 35 32 32 28 24 24 24 24 23 20 22 19 17
21 22 21 15 17 19 19 26 26 27 30 30 29 27 29 26 31 32 32 32 31 33 32 26 25 30 25 20 19 20 22 21 19
23 22 24 15 15 18 24 29 29 28 30 29 29 27 26 28 30 29 28 29 31 30 30 32 28 25 23 19 18 20 18 18 21
21 19 18 12 17 24 24 28 29 28 28 27 25 26 25 27 28 29 27 27 26 26 28 29 27 24 21 19 18 20 23 22 20
15 15 16 12 20 26 25 25 31 29 30 29 27 28 28 28 28 27 25 24 22 19 19 21 20 20 21 20 19 21 23 23 25
12 14 12 15 19 19 23 24 29 24 25 26 27 26 26 26 25 24 21 19 17 15 13 14 19 21 20 20 17 18 22 24 21
10 12 15 22 17 20 23 24 25 22 20 23 24 25 26 25 24 22 20 18 16 14 15 15 16 18 16 14 15 18 20 21 23
11 14 15 22 21 22 22 22 21 18 18 22 23 24 23 23 21 19 20 18 17 14 13 13 15 15 13 12 14 16 22 24 22
17 17 17 23 20 17 16 16 16 16 17 19 20 20 22 22 21 18 18 16 16 15 15 15 12 10 9 10 11 15 11 15 13
13 12 17 20 17 16 16 16 15 13 14 17 18 19 20 22 20 19 17 12 10 14 8 9 9 9 10 12 11 11 11 8 11
10 11 17 17 17 17 15 15 14 13 13 15 20 20 20 18 19 17 20 15 9 7 5 5 4 5 3 1 6 8 16 18 13
15 13 15 15 15 14 14 14 15 13 15 16 17 18 18 18 18 21 18 17 17 14 5 5 3 3 7 7 8 9 12 14 12

GFSFLT1_925_spd_006.txt.gz
Wind_Speed
25 24 21 22 24 23 31 35 33 34 37 36 35 33 31 31 29 26 22 20 20 20 19 19 26 25 22 18 18 16 15 13 12
18 24 23 23 23 27 31 34 35 35 35 37 36 34 32 31 31 29 25 25 26 21 22 18 23 25 22 22 18 18 17 16 14
13 11 21 20 20 23 31 34 36 34 34 36 36 35 33 32 33 34 32 30 28 28 24 25 25 24 24 22 22 21 20 16 16
15 12 20 19 20 26 31 32 34 36 36 35 35 35 35 33 34 35 37 28 29 31 29 31 25 28 25 25 24 24 24 20 20
13 15 14 15 17 20 29 32 33 36 36 35 37 36 36 37 38 35 34 35 30 34 30 30 35 28 28 27 27 27 27 26 20
12 3 13 18 17 19 21 32 33 35 38 37 36 37 38 38 35 36 36 37 36 32 33 33 32 32 30 30 30 31 31 29 25
9 5 11 14 13 18 21 32 35 36 38 38 38 39 40 37 38 39 38 37 37 37 35 34 30 30 31 32 33 34 30 28 25
8 5 9 8 8 11 19 24 35 38 37 40 40 40 39 39 39 39 37 36 38 35 33 32 28 26 27 28 29 28 27 26 25
13 11 9 13 13 9 12 20 32 37 39 41 39 39 40 39 39 37 36 36 33 30 28 27 23 25 27 28 30 28 28 27 25
15 13 12 7 12 13 11 22 35 37 40 39 39 36 39 38 37 37 37 34 31 30 29 23 24 26 32 30 24 23 25 29 27
11 14 17 12 12 12 17 21 31 34 34 35 38 31 35 35 34 35 33 31 29 26 24 24 21 23 27 25 25 26 19 21 27
15 17 12 13 16 15 23 23 27 31 35 36 29 34 34 33 31 30 29 27 24 22 20 18 21 24 24 23 22 25 21 21 25
19 21 16 7 9 19 24 25 27 28 28 33 33 31 30 29 31 30 26 24 20 18 17 19 20 23 23 22 20 20 20 22 22
15 13 11 5 7 11 23 27 28 25 27 27 31 25 26 24 25 24 23 22 18 16 15 13 16 17 16 20 24 17 18 21 24
7 7 3 3 5 10 20 24 25 20 17 19 22 24 23 23 23 22 19 15 15 16 13 13 13 15 16 15 16 15 17 20 23
3 2 4 7 11 10 12 17 23 19 21 24 24 25 23 22 23 21 20 19 20 16 14 14 14 14 14 16 14 14 16 18 19
6 7 9 15 15 10 13 22 22 23 24 25 25 24 23 23 22 19 20 19 19 16 16 13 14 14 14 10 12 14 14 20 20
13 13 15 17 13 13 16 21 23 22 22 23 24 23 21 21 20 20 19 17 14 12 10 12 9 9 12 10 14 17 15 13 10
11 11 16 15 15 15 17 19 17 19 23 23 22 21 20 21 21 21 17 17 13 9 8 8 7 6 9 8 5 13 19 12 12
12 13 12 13 13 14 16 16 14 14 18 23 22 21 20 23 23 20 18 16 17 13 9 7 7 6 6 5 6 8 12 14 15

GFSFLT1_925_spd_009.txt.gz
Wind_Speed
19 14 21 23 25 27 35 36 38 38 40 39 39 41 39 41 34 37 36 29 23 33 31 31 29 29 27 23 19 18 16 16 16
23 20 13 23 23 30 35 37 38 42 39 39 40 38 40 42 43 40 37 33 24 32 29 30 31 31 29 27 21 20 20 18 17
19 16 19 19 21 26 36 40 40 42 43 43 40 40 40 41 43 44 36 34 33 26 30 30 29 36 32 28 25 24 23 21 19
20 23 25 21 24 31 37 38 37 40 43 41 40 40 39 39 40 40 37 36 36 34 30 29 28 35 33 31 28 26 26 25 23
13 10 29 26 23 22 31 37 38 39 39 43 44 43 40 40 38 35 36 38 38 38 36 34 35 35 36 34 32 31 31 31 26
9 7 20 20 20 21 20 34 38 38 38 41 43 42 40 38 37 35 36 39 39 38 41 40 37 37 39 39 36 34 34 34 31
6 8 14 15 19 21 22 33 37 39 38 40 41 41 40 38 39 40 38 38 41 40 38 40 39 41 40 39 38 36 35 34 31
9 7 10 13 22 21 22 28 35 38 41 43 42 41 40 41 41 39 37 36 36 40 37 38 38 39 37 38 37 35 37 35 33
11 6 9 12 15 19 19 23 31 38 40 43 44 42 42 41 37 38 36 36 35 35 38 35 35 34 35 33 33 33 33 35 31
9 3 10 10 10 11 19 29 38 37 42 45 44 42 41 42 40 36 38 34 33 34 34 32 32 31 30 32 33 33 28 30 30
8 8 3 8 12 9 21 30 35 42 40 42 43 41 40 42 40 40 34 35 34 31 33 33 33 31 30 32 32 28 26 29 31
13 18 18 9 14 14 28 33 37 35 37 39 41 38 40 43 42 38 35 34 30 29 27 27 28 28 29 28 25 29 25 18 27
5 11 8 11 19 12 20 26 36 36 36 35 37 41 42 39 40 35 31 33 29 29 31 23 27 22 22 25 27 25 28 31 24
4 2 5 16 19 11 25 30 34 32 36 35 43 36 31 31 31 31 35 35 33 30 25 23 18 18 21 23 26 28 27 26 25
4 2 5 5 7 10 26 29 31 25 27 31 31 32 31 31 35 35 39 37 30 27 24 20 22 20 23 25 25 22 21 23 22
5 5 7 11 9 10 11 29 29 21 25 33 33 33 32 33 34 33 30 29 26 23 21 20 21 24 23 20 17 18 19 19 20
9 7 6 11 14 11 10 20 26 31 33 38 35 33 31 32 33 29 28 26 26 26 23 20 19 18 18 18 17 16 16 16 18
12 11 3 12 12 13 15 23 24 28 31 36 30 28 27 28 31 27 26 22 20 22 19 18 20 19 19 18 17 20 17 17 19
14 17 36 15 20 23 24 26 27 30 33 36 31 27 24 25 24 29 31 28 25 18 16 14 14 16 14 16 15 14 14 15 12
17 24 39 13 15 23 24 22 22 24 29 31 28 24 26 25 26 26 27 28 28 22 16 15 14 12 14 12 14 15 19 17 14

GFSFLT1_925_spd_012.txt.gz
Wind_Speed
17 23 24 26 26 29 37 38 39 39 39 38 40 43 45 46 44 40 36 32 32 28 34 37 33 32 30 27 25 21 19 18 16
20 25 26 28 26 33 38 38 40 42 40 41 42 45 45 43 44 40 32 34 30 31 31 36 37 34 33 30 28 24 21 20 18
26 26 27 25 24 28 39 41 42 44 45 45 46 46 45 43 44 40 36 36 33 29 29 36 37 36 36 35 32 27 24 23 20
29 28 25 25 22 30 38 39 38 41 42 42 40 42 42 38 39 38 38 41 38 36 31 37 37 40 39 38 35 31 28 25 22
27 26 21 21 22 21 29 36 36 41 40 42 44 43 40 39 37 36 40 45 44 39 38 36 41 41 42 40 38 35 32 29 27
8 7 6 7 14 19 20 33 37 39 40 43 42 41 39 37 36 36 40 42 44 45 41 41 40 41 42 42 40 38 35 33 31
14 12 11 14 14 19 19 32 36 38 39 42 43 41 40 38 38 39 40 42 44 42 42 42 42 43 40 40 41 40 38 37 34
7 15 12 17 19 20 20 27 35 37 39 42 43 43 42 42 41 37 37 39 42 40 39 41 42 41 39 40 40 42 41 39 36
10 11 16 19 22 23 21 25 35 39 39 42 42 41 43 42 39 38 38 38 37 37 36 39 38 37 40 40 41 42 42 40 38
10 9 14 14 22 23 21 29 36 36 40 40 41 43 39 39 39 38 38 37 35 35 35 34 34 34 37 37 41 43 40 38 35
9 9 7 21 16 18 29 36 37 42 39 41 41 41 39 39 39 38 36 35 36 32 32 32 34 35 34 35 38 40 34 35 29
12 11 9 8 14 20 20 31 37 36 35 38 38 38 39 40 40 36 35 35 36 32 30 32 35 37 37 34 31 37 29 25 25
10 7 6 10 16 23 27 31 36 39 36 38 38 42 43 44 40 37 35 36 34 33 35 35 37 38 34 30 28 30 24 24 30
3 3 8 14 13 12 26 35 31 30 33 34 47 48 45 36 39 38 37 33 33 34 34 34 34 32 30 24 25 21 21 29 28
5 6 6 6 5 11 30 30 34 31 30 46 45 38 34 34 36 36 36 37 34 36 36 31 27 27 24 23 21 24 25 26 26
10 11 8 17 10 7 9 20 31 28 42 37 31 32 31 32 32 34 38 38 35 29 29 27 25 23 24 24 24 24 23 27 24
9 11 14 22 22 15 7 14 24 27 31 38 38 32 29 31 32 33 34 32 33 30 29 27 25 23 23 24 25 24 22 22 22
7 9 14 16 12 13 23 30 21 23 26 30 32 34 29 28 28 30 29 26 20 23 25 35 32 30 30 29 26 25 22 21 21
8 10 13 12 15 18 20 33 44 27 36 41 34 28 30 27 27 27 30 29 22 25 26 25 26 27 27 27 23 21 19 16 16
11 16 13 14 17 21 52 58 32 23 28 36 33 29 29 30 35 34 27 36 38 15 21 25 23 25 24 21 20 21 19 18 17

GFSFLT1_925_spd_015.txt.gz
Wind_Speed
23 23 23 25 26 27 36 38 38 38 38 39 40 43 45 44 43 40 40 38 35 32 31 32 27 31 31 29 27 23 22 20 19
22 22 24 27 26 30 37 37 40 43 42 43 43 45 43 40 41 37 38 40 37 34 33 32 29 32 34 32 29 27 24 22 22
17 19 21 23 22 26 36 40 43 43 46 47 48 46 44 41 43 42 39 40 39 36 34 33 30 33 36 33 31 29 27 25 23
17 16 20 22 22 29 35 35 37 40 41 43 43 41 40 38 38 38 38 42 41 39 35 35 36 35 38 36 34 32 31 28 25
14 21 24 21 23 20 27 32 33 39 42 42 45 43 41 41 42 38 38 43 44 42 38 35 33 33 36 39 36 36 35 33 29
11 11 15 15 14 13 17 29 34 37 41 44 42 40 41 39 38 39 40 44 43 45 42 40 37 34 36 39 38 37 39 36 33
10 9 14 14 11 12 15 27 32 35 40 41 40 39 40 39 40 41 42 43 42 41 44 42 39 39 38 41 41 40 39 40 37
7 9 10 13 14 15 17 23 31 33 35 36 40 40 39 41 38 38 37 39 41 42 40 42 42 40 39 40 41 41 41 41 40
10 9 9 9 20 20 19 22 34 37 37 37 39 39 41 40 39 38 38 39 38 38 39 39 40 41 42 42 40 40 40 41 39
11 11 11 14 15 14 18 25 34 35 39 37 39 41 38 37 37 37 38 37 35 37 37 38 41 40 41 42 42 40 39 39 35
11 10 10 10 12 14 21 30 36 38 33 36 39 39 37 36 39 39 36 35 37 35 35 39 39 40 40 41 42 42 40 36 30
9 9 10 11 15 17 22 29 32 30 30 33 33 34 35 37 39 38 36 37 37 34 32 33 36 39 40 41 40 39 38 32 30
10 10 4 6 17 18 20 24 26 29 29 32 33 35 40 41 41 38 38 39 38 37 36 33 33 39 41 41 38 37 36 29 31
7 5 9 10 10 4 12 24 27 20 23 27 38 38 40 37 37 40 41 36 35 38 37 33 33 34 35 40 40 35 29 32 31
12 13 13 16 13 15 19 7 9 15 23 39 36 32 29 32 36 36 34 35 33 34 33 31 29 26 27 30 34 26 25 28 24
9 9 8 12 13 12 20 21 7 11 31 29 31 29 31 33 33 33 34 34 34 31 32 27 24 23 22 24 25 25 28 26 22
10 10 10 11 11 9 7 14 17 16 16 20 23 25 32 34 34 36 39 37 35 33 29 27 23 23 21 23 26 26 25 24 21
6 6 6 12 9 8 14 24 23 20 20 27 21 27 25 23 24 34 30 29 29 30 28 31 26 21 23 24 23 35 31 29 28
4 6 6 6 10 10 14 20 24 27 23 14 21 15 18 23 27 24 27 32 33 27 24 25 20 16 5 14 23 26 27 26 27
7 10 11 12 12 12 13 16 22 30 28 22 11 7 22 22 26 27 27 25 29 25 31 23 15 24 33 30 29 28 26 26 24

GFSFLT1_925_spd_021.txt.gz
Wind_Speed
20 22 24 26 25 28 32 35 36 37 36 37 37 38 39 39 37 34 34 31 27 25 23 21 21 25 24 23 20 19 18 14 12
17 21 23 27 26 30 33 35 39 41 40 39 38 39 39 39 38 37 35 33 33 27 26 21 21 25 24 23 21 21 21 17 16
18 19 19 22 23 29 35 39 40 39 40 41 42 40 40 38 39 39 38 32 33 31 28 30 22 25 24 23 23 21 23 19 19
20 19 19 20 21 30 35 33 33 37 38 40 39 41 41 40 38 39 38 35 34 35 32 32 29 28 25 25 24 23 25 24 20
13 14 16 16 18 23 27 33 34 38 39 39 43 43 40 42 39 38 38 39 38 38 37 36 36 32 29 26 24 25 27 28 23
10 10 13 13 13 17 20 29 33 36 38 43 42 38 39 38 38 38 40 41 40 37 36 36 33 34 33 28 26 28 29 30 28
10 10 10 10 12 15 18 28 32 34 37 39 38 39 40 40 41 44 42 40 39 38 38 36 36 37 35 32 29 30 31 30 30
10 11 11 11 13 13 15 22 28 33 36 35 38 38 39 43 44 41 38 39 41 40 38 39 40 38 36 35 33 33 33 31 32
15 15 13 13 12 12 15 20 26 31 34 37 37 38 41 39 37 39 40 38 38 36 38 37 37 37 38 38 37 37 40 40 31
17 16 15 14 13 12 13 22 29 30 33 30 36 38 34 32 33 35 38 39 38 40 40 38 38 37 37 39 40 42 46 44 34
19 20 18 16 15 12 18 20 23 26 27 31 31 31 31 32 35 36 36 36 39 38 38 39 38 38 38 38 41 46 51 49 44
21 19 16 13 15 17 15 21 23 24 26 29 29 33 37 39 40 37 34 36 39 37 35 35 37 35 37 40 42 48 51 49 39
17 14 12 11 12 12 14 16 21 24 26 26 30 35 35 27 29 32 35 36 34 33 36 37 35 36 38 41 41 43 49 49 37
5 6 9 11 7 5 3 9 18 21 22 26 26 23 26 28 32 35 35 33 33 33 33 30 34 37 37 40 45 39 45 47 37
6 6 7 8 7 5 2 5 14 14 14 14 16 20 24 26 29 30 30 32 31 33 33 33 33 33 31 33 36 39 37 43 47
8 9 9 11 10 12 10 9 10 12 10 8 12 17 21 24 25 28 29 31 32 31 32 33 32 29 28 28 27 27 40 37 42
8 7 8 12 11 10 12 14 13 12 7 5 7 13 17 20 23 26 29 30 29 31 31 32 30 29 31 32 32 34 38 39 41
4 7 7 9 10 11 12 10 10 8 6 1 2 3 6 12 19 24 26 31 30 32 35 37 35 34 34 27 22 25 34 35 31
4 5 7 9 10 11 10 9 10 8 6 5 3 1 3 7 12 17 24 25 28 38 37 38 42 37 34 31 33 35 40 45 39
7 8 10 10 10 11 11 10 9 8 6 6 5 3 3 4 7 10 14 18 19 18 25 37 38 41 38 42 42 44 47 48 45

GFSFLT1_925_spd_024.txt.gz
Wind_Speed
18 20 21 23 25 29 33 37 38 37 35 34 34 35 36 34 33 31 29 27 25 22 21 19 18 21 22 21 18 16 15 14 13
16 19 22 25 26 32 34 36 37 39 38 37 37 37 35 36 35 35 33 31 28 26 22 19 19 21 23 22 21 19 17 17 16
19 20 22 21 22 29 36 38 40 41 41 41 41 39 38 37 37 36 36 31 31 28 28 26 21 23 23 23 22 21 21 19 19
20 19 19 20 21 28 32 33 35 39 39 39 38 40 40 38 38 38 36 35 34 34 31 28 27 26 24 25 24 24 23 23 21
18 18 16 15 17 19 25 31 34 38 41 41 43 42 40 41 39 39 38 38 38 36 35 34 31 29 27 26 27 27 26 26 25
7 7 9 12 13 16 18 26 31 34 36 40 40 38 39 38 39 39 40 38 38 37 37 36 35 33 32 31 30 30 29 28 28
4 8 10 10 12 15 17 23 27 32 36 37 38 38 40 39 40 43 41 39 39 39 38 36 36 36 35 34 33 32 31 30 30
9 5 4 6 10 12 13 18 24 29 33 33 35 36 38 40 41 39 37 38 38 39 38 39 38 36 36 36 35 35 35 34 33
15 16 16 16 11 13 13 18 22 25 29 33 34 32 38 35 34 35 37 35 37 37 38 38 37 38 38 38 39 40 42 39 36
17 16 17 15 14 14 13 18 20 23 26 28 32 35 32 34 33 36 35 34 34 37 38 36 38 38 39 40 42 45 47 49 41
19 18 18 17 16 14 16 18 18 17 20 27 30 31 33 33 34 33 30 33 37 37 36 39 39 39 40 40 43 47 49 50 47
19 20 18 17 21 21 19 20 19 16 20 24 29 31 36 36 33 32 33 36 38 37 35 35 38 37 38 42 43 46 50 51 41
18 18 17 16 20 16 16 19 18 19 21 24 29 31 30 31 32 33 35 35 34 34 35 36 35 37 40 42 42 45 50 52 41
17 14 15 17 17 16 16 13 14 19 20 25 26 25 26 28 30 33 34 32 32 32 34 33 34 35 36 38 42 41 48 53 47
20 16 14 13 11 11 11 11 15 18 18 19 20 22 24 25 27 29 29 30 29 31 31 31 31 32 34 37 39 44 43 51 57
14 13 9 9 9 6 5 7 11 12 11 14 16 19 21 22 23 25 25 27 28 29 30 32 32 33 34 35 37 40 47 48 54
6 3 1 1 2 4 6 7 8 9 9 10 12 14 15 16 19 20 22 24 26 27 28 30 31 29 30 33 32 34 34 44 46
2 1 3 5 5 6 9 10 10 8 7 5 6 8 10 12 15 18 18 22 23 26 28 29 29 32 31 28 31 33 34 31 34
2 3 5 9 10 9 10 10 10 9 8 6 3 3 5 6 9 12 16 18 20 28 29 24 35 35 33 32 39 36 37 39 43
7 10 10 11 10 11 13 13 12 10 8 6 5 4 2 1 2 4 6 9 12 15 11 23 35 36 42 45 43 41 42 41 48

GFSFLT1_925_spd_027.txt.gz
Wind_Speed
21 21 20 23 26 27 31 34 36 35 35 35 35 36 34 34 30 29 30 26 23 24 22 21 18 28 24 22 20 18 16 16 14
21 23 20 23 26 31 32 35 37 39 38 40 39 40 37 35 36 35 31 31 32 23 23 20 20 21 22 23 23 21 20 19 18
23 20 22 23 23 29 35 38 39 39 39 40 41 39 39 39 38 37 35 30 29 31 26 25 17 24 23 24 25 24 23 21 19
21 19 21 21 22 30 35 36 36 39 39 37 38 41 41 40 40 39 37 36 33 33 30 27 31 23 26 26 27 26 26 25 21
23 21 20 21 22 22 30 35 37 38 39 40 41 41 40 41 39 40 40 40 39 35 35 32 28 29 28 28 28 28 28 27 26
16 18 18 19 22 21 20 31 34 38 39 42 41 39 39 37 40 40 42 40 39 38 37 36 34 31 31 31 31 30 31 30 29
10 9 4 8 12 16 19 25 26 29 35 38 38 39 39 39 41 44 41 39 39 39 39 37 36 35 35 35 35 35 36 36 34
5 6 7 10 10 10 10 15 21 27 31 31 35 36 38 41 37 36 35 36 39 38 38 39 38 37 37 37 37 37 37 36 34
5 6 7 8 11 10 12 16 19 22 27 29 30 31 38 36 37 36 37 35 36 36 38 40 39 40 41 41 41 41 43 40 37
9 9 10 11 12 11 12 18 19 21 24 29 31 31 30 35 34 36 35 33 35 39 39 36 40 41 40 41 43 45 47 47 41
11 11 12 11 12 12 17 21 19 25 24 26 28 28 33 33 35 33 35 37 39 36 37 39 38 39 40 41 44 48 50 50 49
17 16 15 13 16 16 15 15 12 13 19 22 26 29 31 33 33 33 34 37 37 35 36 37 39 38 39 42 44 45 50 50 44
14 14 12 11 16 15 16 17 21 21 21 21 24 28 28 31 32 34 35 35 34 34 34 35 33 37 40 42 43 42 45 51 42
13 14 14 18 12 13 15 15 16 15 19 21 26 23 25 28 31 33 32 31 31 32 32 31 33 34 35 38 40 42 46 49 47
16 15 14 16 15 10 13 14 12 13 15 18 16 19 22 25 27 29 30 29 28 28 28 29 30 29 32 34 39 42 44 48 53
14 13 10 11 12 12 5 5 9 12 12 13 14 17 18 20 22 24 24 25 25 24 26 27 27 28 30 31 32 34 41 46 50
9 6 7 8 7 4 2 4 2 3 2 6 11 13 15 16 18 19 20 22 22 24 25 26 27 26 25 28 27 30 29 36 46
9 6 6 5 1 3 5 5 6 5 4 2 8 10 12 14 15 18 18 19 21 22 23 24 23 24 26 25 24 27 27 29 28
7 9 10 7 5 6 6 7 8 6 5 3 1 4 8 10 13 16 16 15 18 20 22 18 20 21 22 23 27 28 24 27 36
7 3 3 5 5 12 10 8 7 7 7 6 5 4 4 2 4 6 5 6 7 9 7 15 16 14 18 25 30 34 37 36 33

GFSFLT1_925_spd_030.txt.gz
Wind_Speed
23 22 23 25 27 26 34 35 38 39 40 41 40 38 36 37 29 32 36 23 25 26 23 26 25 28 28 25 22 21 18 17 16
23 24 22 26 25 29 34 35 39 40 41 40 40 41 36 36 38 31 32 29 29 24 26 20 25 29 33 30 25 25 23 20 19
20 22 21 23 24 26 36 39 39 39 39 41 44 42 41 39 40 38 33 37 30 30 25 28 17 29 32 29 27 25 25 22 22
18 20 22 22 23 30 36 36 36 38 38 38 38 41 43 41 38 39 39 32 36 31 35 23 30 22 30 30 29 29 28 28 25
15 15 20 21 22 23 30 35 36 39 39 38 41 40 39 39 38 38 40 41 36 36 31 37 29 31 29 29 31 30 32 30 30
19 13 15 19 21 20 21 33 36 38 41 41 36 36 36 35 38 40 39 39 41 37 38 33 38 31 32 32 31 32 32 32 31
11 12 10 17 18 20 19 31 34 35 37 38 38 36 37 37 37 38 37 37 38 40 38 40 39 38 35 34 36 35 35 34 34
9 12 8 9 13 16 18 23 32 33 35 38 38 39 39 41 40 37 37 37 37 37 40 42 41 39 39 38 37 37 37 36 36
8 8 5 4 4 3 5 12 23 33 33 33 38 38 40 41 39 40 38 38 38 39 41 40 39 40 39 39 40 41 43 41 38
6 2 1 3 2 5 5 8 16 23 29 30 30 36 36 37 39 39 40 39 39 40 39 38 40 39 39 42 43 45 47 48 42
5 4 5 4 7 7 12 16 19 19 22 29 29 27 28 31 34 37 37 39 39 38 38 39 38 38 40 40 43 46 48 49 50
3 5 7 7 12 15 17 20 24 29 28 29 29 29 28 30 30 31 35 38 38 37 36 36 38 38 37 41 42 42 46 47 47
12 11 10 9 16 17 9 4 12 10 23 23 26 30 31 29 33 32 34 35 35 34 34 34 33 35 37 39 40 39 41 45 42
11 11 9 10 10 13 8 11 13 13 9 15 29 29 26 29 30 34 32 30 30 30 30 29 32 33 33 36 37 38 38 41 42
13 12 11 11 8 9 13 6 10 13 10 13 12 21 27 26 27 27 26 27 25 27 27 28 29 28 30 31 32 34 36 40 43
15 11 6 11 12 9 9 3 5 6 10 8 10 11 19 21 21 23 24 25 24 22 24 25 24 25 25 23 24 27 30 37 40
15 14 9 13 16 8 8 7 6 4 2 4 7 7 10 13 15 18 20 18 23 23 22 22 22 19 19 21 22 23 26 29 38
14 13 18 17 14 5 5 5 6 6 6 5 4 5 7 8 11 16 16 18 18 20 23 20 19 22 22 18 15 4 9 14 8
13 12 13 13 10 5 6 7 5 5 3 3 3 9 10 12 13 15 15 16 16 17 11 9 8 4 6 6 7 15 21 24 26
12 17 14 11 6 6 4 3 3 1 1 3 4 4 5 7 4 7 18 14 13 15 10 10 9 11 16 19 20 21 24 27 29

GFSFLT1_925_spd_033.txt.gz
Wind_Speed
28 23 24 28 30 31 36 40 42 40 42 41 42 43 44 44 34 35 36 29 29 28 29 28 27 28 26 26 23 21 20 20 20
26 31 29 29 29 35 39 38 43 44 42 41 40 39 39 40 41 32 39 40 29 26 27 31 28 29 32 30 28 25 24 24 23
21 31 29 27 27 32 41 42 42 42 40 41 41 39 37 40 44 46 35 38 40 29 31 27 27 32 34 36 33 29 27 25 24
28 24 29 28 26 36 43 42 39 42 39 39 37 39 40 39 38 39 37 36 41 41 31 26 33 25 35 39 37 33 30 29 28
15 21 25 28 28 30 33 38 37 41 41 40 41 40 38 35 34 34 38 37 39 41 37 37 28 31 26 33 37 35 35 33 31
9 15 24 26 26 23 26 35 37 39 41 40 40 38 35 36 35 34 35 37 39 37 43 42 39 31 29 34 38 37 37 37 35
11 12 19 25 23 23 26 35 37 38 38 38 37 38 38 37 37 36 36 36 37 40 40 39 39 41 36 34 38 41 41 39 38
8 10 17 22 23 21 22 30 36 37 39 40 39 38 38 40 38 39 37 38 36 40 42 37 39 38 40 39 38 41 43 41 41
12 10 9 10 15 21 24 30 35 37 38 40 42 40 43 39 39 38 40 38 40 37 38 40 38 40 41 40 40 40 43 42 38
10 10 10 9 9 8 8 22 31 34 37 41 40 42 39 40 39 40 40 40 37 38 37 35 39 39 38 41 42 42 42 43 40
9 10 10 9 7 4 8 14 30 34 35 34 39 38 38 36 38 38 39 38 40 37 38 38 38 38 39 37 42 42 43 43 46
10 10 8 7 14 16 11 11 20 32 30 33 32 35 34 38 39 39 37 38 38 38 35 35 37 36 36 39 38 37 39 40 43
13 10 6 8 15 15 15 14 7 24 29 30 30 32 36 37 39 37 38 38 38 37 37 36 33 35 36 37 35 34 35 37 42
13 9 10 14 14 8 10 7 8 9 7 19 36 36 34 33 35 39 38 36 34 33 33 31 31 30 31 31 32 32 31 36 40
15 17 10 20 17 19 16 8 6 7 6 1 10 16 27 32 35 34 30 32 31 30 29 28 26 25 25 26 29 29 31 32 38
12 14 17 24 21 20 20 21 12 10 9 6 2 6 17 32 32 31 27 25 28 26 26 25 22 22 20 21 26 28 27 31 36
10 12 15 22 22 16 15 19 20 19 16 11 8 5 10 21 24 23 23 21 26 24 24 21 19 20 20 22 25 26 23 21 27
8 11 19 21 18 17 13 15 16 17 16 13 14 7 8 15 18 20 20 21 16 24 24 25 24 26 24 18 11 10 7 8 8
6 9 18 17 19 17 10 8 10 12 12 12 14 12 7 10 14 17 21 22 13 10 16 12 11 14 14 11 9 5 3 6 11
17 17 17 16 16 8 6 6 5 8 9 10 9 5 4 14 9 19 23 23 20 25 28 26 21 20 20 17 14 13 14 10 8

GFSFLT1_925_spd_036.txt.gz
Wind_Speed
29 25 22 23 26 34 37 39 42 43 42 40 42 45 44 44 42 40 37 35 30 28 33 33 32 30 28 26 25 23 21 21 19
27 28 24 26 25 35 37 39 42 44 43 42 41 43 40 38 42 39 40 38 37 30 31 31 30 32 31 30 28 26 23 23 22
29 27 26 22 23 33 40 41 45 44 43 45 42 41 40 39 40 44 42 38 38 35 30 31 30 31 33 32 31 30 28 27 25
29 27 27 25 23 35 42 40 39 41 41 41 38 39 40 38 39 39 38 40 41 40 35 26 30 31 31 34 35 35 33 31 29
30 30 31 26 26 31 35 36 36 39 39 40 42 44 41 40 36 35 36 39 41 42 42 39 25 31 29 37 36 37 37 36 33
28 30 30 27 23 22 27 35 36 37 38 42 41 39 37 35 34 36 38 39 39 42 41 39 37 29 33 35 34 37 40 39 37
18 30 29 25 23 22 27 36 37 38 37 38 39 38 37 36 36 36 38 41 38 36 41 41 38 39 37 31 33 35 36 39 40
16 25 29 27 25 23 21 32 35 34 36 37 39 37 37 37 37 37 38 37 40 38 36 41 43 40 43 39 38 36 38 40 42
17 24 28 29 28 25 22 30 34 35 36 38 39 39 39 37 36 37 37 38 36 38 38 40 37 42 41 43 43 39 41 41 42
10 13 26 26 26 25 23 34 37 35 39 36 37 37 35 36 36 35 37 37 35 34 37 37 39 38 39 40 39 39 39 41 43
17 14 12 8 9 10 19 25 29 28 29 35 36 33 33 33 33 34 33 33 33 33 33 34 37 37 39 38 40 39 40 40 41
7 8 7 8 14 15 23 30 32 32 31 32 31 32 34 34 37 35 34 33 33 34 32 33 34 35 36 38 35 35 39 39 41
11 8 7 8 17 23 24 11 26 27 29 29 32 33 35 33 34 37 35 36 35 36 36 34 33 33 34 35 34 34 33 35 40
14 14 14 16 23 18 14 15 15 18 19 26 35 33 34 35 40 40 38 35 34 32 32 32 31 31 31 31 32 33 32 34 37
16 16 17 22 20 22 25 18 19 18 11 5 20 19 30 34 35 34 31 34 33 33 31 29 28 26 25 27 28 30 31 34 37
12 13 17 21 17 17 25 28 24 22 17 13 3 8 24 29 31 32 33 34 31 27 28 26 24 23 22 22 25 31 34 35 35
11 11 13 16 18 14 14 19 20 18 16 16 14 6 7 11 20 26 31 30 29 25 23 22 20 20 19 22 28 30 29 28 30
10 13 18 22 17 14 13 15 16 15 14 13 13 12 8 11 14 20 23 20 20 23 25 28 26 27 26 19 17 17 16 18 15
11 14 20 18 18 14 12 14 14 15 15 14 12 11 7 7 11 15 21 18 11 10 19 22 23 21 19 9 9 10 9 9 9
17 18 18 16 16 12 7 9 9 13 9 12 12 11 10 7 11 17 19 20 24 23 28 22 20 18 16 12 11 9 7 6 4

GFSFLT1_925_spd_039.txt.gz
Wind_Speed
21 17 18 24 22 29 34 38 39 40 40 40 41 44 45 45 44 40 36 33 33 29 29 30 28 29 27 24 21 19 18 18 17
21 20 19 23 23 30 33 37 41 43 41 42 41 44 43 41 41 39 37 35 33 35 30 28 29 29 30 28 25 22 22 21 21
23 22 22 22 21 27 34 37 41 42 43 44 44 42 41 40 43 42 40 37 36 36 31 29 27 29 29 31 29 26 25 25 24
22 22 24 23 19 30 35 32 35 38 39 39 37 39 38 38 39 41 40 38 38 37 35 32 28 28 28 29 32 31 29 29 27
20 20 26 23 21 26 30 33 32 36 37 37 39 40 40 39 39 41 37 40 40 39 36 33 31 29 29 30 30 32 33 32 32
14 22 24 23 19 17 24 32 31 35 37 39 40 38 37 35 34 32 35 39 40 39 37 35 35 33 29 32 33 34 33 34 34
17 21 23 22 20 20 25 32 33 34 35 37 37 36 34 34 34 35 40 40 38 38 40 40 39 38 39 35 33 35 33 33 35
20 25 25 23 23 22 19 27 31 31 33 34 36 35 35 36 36 38 39 38 39 39 40 41 43 42 40 41 38 35 35 37 36
11 21 25 25 25 23 22 28 33 33 33 36 38 37 36 37 35 36 38 38 39 40 40 41 41 43 44 44 41 43 41 39 37
15 19 20 23 23 22 21 32 36 34 37 33 36 33 33 33 34 35 37 38 36 38 39 38 39 40 41 41 43 42 42 41 40
7 9 20 21 21 21 32 33 33 26 30 32 30 31 31 31 32 33 32 31 33 33 34 36 37 38 38 37 38 42 43 42 41
7 5 6 5 19 23 26 29 30 29 29 29 28 31 34 34 35 32 31 32 33 34 32 33 36 37 38 38 36 38 39 38 40
16 13 9 7 18 22 23 23 27 26 25 26 28 32 35 33 35 34 34 35 35 36 34 33 30 30 33 37 37 37 37 36 40
14 15 16 19 23 17 10 31 32 27 27 31 36 26 26 31 38 38 35 34 32 30 31 28 27 29 30 32 34 34 33 34 37
17 17 19 21 20 20 22 18 23 18 11 11 16 25 29 34 33 31 29 30 31 30 28 27 26 25 25 28 31 32 33 33 36
13 14 16 20 18 21 25 27 26 23 12 9 10 21 27 32 32 33 33 33 32 26 27 26 23 23 22 22 27 31 32 32 32
11 13 14 17 16 16 17 22 21 17 14 12 12 9 6 15 24 29 29 30 26 26 24 23 22 20 19 22 25 29 30 33 34
7 12 17 19 15 13 15 16 16 14 13 9 8 8 7 2 6 14 20 21 20 23 25 26 24 26 25 20 18 21 24 22 21
10 11 17 18 18 17 14 14 12 11 11 10 6 4 2 1 3 7 14 16 9 10 16 19 20 15 15 14 14 15 14 14 13
17 20 19 17 14 15 9 8 8 10 7 8 6 2 2 4 4 11 15 17 19 21 22 10 8 7 8 7 9 8 7 5 4

GFSFLT1_925_spd_042.txt.gz
Wind_Speed
17 18 20 22 21 28 31 35 37 36 37 37 40 42 43 44 42 42 40 35 31 30 29 25 20 20 22 21 19 15 14 14 14
16 20 21 22 22 31 34 35 40 41 39 39 40 45 44 41 41 40 39 38 32 30 27 26 22 22 23 23 22 20 18 17 17
17 19 19 19 19 28 37 39 38 38 41 41 43 43 42 41 41 44 43 40 36 31 28 25 24 22 24 24 24 23 22 21 20
18 19 20 21 21 32 34 35 37 38 38 37 36 38 39 36 38 39 42 42 39 34 29 26 28 26 23 24 25 25 26 25 23
17 20 22 22 22 28 31 36 37 39 38 37 39 41 40 41 39 40 40 41 41 36 32 28 30 27 25 26 25 25 26 28 27
13 19 20 19 16 17 26 32 36 37 38 37 38 37 38 36 35 36 38 40 41 38 34 32 31 32 32 30 27 27 26 26 28
8 9 13 16 15 17 26 33 33 36 36 37 37 35 36 36 37 37 38 40 40 39 36 35 35 34 34 33 30 28 28 28 29
8 10 14 17 19 18 19 26 29 33 35 37 37 36 35 37 37 37 40 39 40 40 39 38 37 37 37 36 35 35 32 31 33
11 15 15 17 22 21 20 28 33 35 35 38 39 37 36 36 35 37 39 40 40 39 40 39 38 40 40 41 41 40 40 39 36
10 11 18 21 22 22 22 33 35 35 37 36 37 35 34 34 35 36 37 39 37 39 39 37 38 40 39 40 43 44 42 41 42
13 12 10 17 18 19 32 34 35 28 33 36 36 34 33 33 34 34 33 32 35 35 36 36 36 38 39 39 41 42 43 43 42
12 12 10 7 15 21 27 30 31 31 31 33 33 33 34 35 36 34 32 33 34 34 32 32 36 37 37 39 39 38 39 38 40
14 13 8 6 17 20 23 25 30 30 29 31 32 34 34 32 34 35 36 36 36 35 32 31 28 32 35 38 38 37 36 36 37
15 16 16 15 18 17 23 30 29 25 26 29 27 26 29 33 37 37 34 31 31 29 29 26 26 28 31 33 33 33 32 32 36
19 19 20 23 16 15 16 27 29 23 22 20 25 30 32 34 33 31 29 32 30 29 28 26 26 26 26 30 32 31 30 29 32
18 20 20 25 19 20 21 20 23 18 8 14 19 27 31 32 31 32 31 31 27 26 28 26 24 23 23 23 29 30 28 28 28
15 16 18 22 21 20 19 24 24 18 13 13 18 21 24 27 29 29 28 28 27 25 25 24 22 22 20 20 23 25 25 24 27
12 17 22 21 18 17 17 18 18 16 14 12 15 13 11 15 21 23 24 22 21 21 22 24 22 21 20 19 17 20 20 19 20
15 16 23 23 22 19 21 18 17 16 14 11 7 8 8 10 15 19 23 23 15 17 18 18 19 17 18 16 16 15 15 13 15
20 22 23 24 21 22 21 17 18 17 14 13 8 2 2 5 12 16 20 19 18 16 13 14 17 16 14 15 14 13 10 9 8

GFSFLT1_925_spd_045.txt.gz
Wind_Speed
20 23 23 24 25 31 33 35 36 34 34 36 37 37 36 38 37 29 29 28 24 22 20 20 19 21 19 17 15 13 12 11 10
20 23 25 27 27 34 34 35 37 37 35 35 36 38 37 37 37 34 28 30 30 23 22 17 19 22 19 18 18 17 15 13 12
18 21 23 23 24 33 36 38 38 37 36 37 37 36 36 35 36 37 34 29 30 28 24 22 19 23 21 19 18 18 18 14 13
20 20 22 23 24 35 38 37 37 39 38 36 36 36 35 35 33 34 33 30 30 30 30 26 25 24 23 20 19 19 19 19 16
21 21 22 23 24 31 34 37 38 41 40 40 39 38 37 36 35 33 31 33 29 29 32 30 29 26 25 23 20 19 18 18 17
14 19 20 20 19 21 28 34 37 39 40 43 41 38 37 35 35 32 33 33 32 31 34 34 29 26 27 24 24 21 20 21 19
10 13 16 16 17 18 27 32 36 37 38 39 39 38 37 35 36 36 35 33 32 31 35 35 33 31 28 26 25 23 21 20 20
4 8 12 17 20 19 22 28 32 34 34 36 38 37 37 38 36 35 33 31 32 32 31 35 36 32 29 27 25 25 25 24 22
11 11 11 13 19 19 19 29 34 38 38 38 38 37 37 35 34 33 34 33 32 30 32 33 30 29 28 27 28 30 33 31 24
11 13 13 14 16 19 23 32 36 37 40 38 38 37 34 34 33 34 34 33 32 32 32 29 29 28 28 29 32 37 37 37 33
13 15 16 17 16 18 30 35 37 32 34 38 37 35 34 33 34 33 32 31 31 31 30 29 29 28 29 29 32 38 39 38 38
14 16 17 18 25 29 27 31 34 33 33 35 34 33 34 34 34 32 31 31 31 29 27 27 28 27 27 29 32 37 37 35 30
14 13 13 14 23 25 28 30 34 33 33 35 35 36 36 33 34 33 33 32 31 30 29 28 26 27 28 29 30 32 36 33 27
12 13 14 4 18 19 25 31 33 30 31 34 34 29 30 31 33 32 31 30 28 27 27 25 26 26 26 26 28 30 34 32 30
15 15 18 15 9 15 25 31 31 28 27 25 27 28 29 30 30 30 28 28 26 27 26 25 24 24 23 23 24 29 28 29 30
15 17 17 21 17 19 15 13 17 20 18 25 30 29 29 28 28 27 25 27 26 25 25 24 24 23 22 21 20 21 24 28 26
16 17 16 23 25 23 22 19 15 11 8 15 24 26 26 27 28 27 26 25 25 25 24 24 23 21 20 19 18 18 17 19 26
12 17 26 25 22 23 23 22 21 16 12 4 14 20 23 24 24 28 26 24 22 24 22 24 23 21 20 19 17 17 16 15 14
18 20 26 26 27 24 22 21 20 18 16 11 6 8 10 13 15 20 22 22 17 20 20 23 23 18 16 17 15 13 13 14 14
21 23 26 27 23 22 20 20 20 20 18 14 13 7 10 8 4 13 11 16 16 11 6 12 17 19 18 17 14 16 13 11 9

GFSFLT1_925_spd_048.txt.gz
Wind_Speed
20 21 22 24 25 32 36 38 38 37 36 35 36 35 32 30 30 27 26 23 20 19 17 16 13 14 15 14 12 11 9 9 10
17 20 22 25 25 33 36 38 40 40 37 37 36 36 33 32 31 30 27 25 22 21 18 15 15 17 17 16 15 14 11 11 10
18 18 20 21 23 32 36 38 40 40 38 38 38 36 35 34 33 31 30 25 24 21 21 19 16 17 18 18 17 16 14 12 12
22 18 20 22 23 33 37 37 38 41 40 38 37 38 37 35 35 33 30 29 27 24 22 20 19 18 18 19 18 17 17 15 13
22 19 20 21 23 29 32 36 38 40 41 40 38 38 37 37 35 33 32 30 29 25 24 23 22 20 19 20 20 19 19 18 17
18 19 21 20 19 20 29 36 38 40 40 41 39 37 37 37 35 34 33 31 30 27 25 25 24 22 22 21 21 20 20 19 19
16 20 14 17 18 19 27 32 34 36 40 41 40 38 38 37 37 37 35 34 31 29 28 26 26 25 23 23 23 23 22 21 20
2 7 14 15 17 17 20 27 30 35 37 37 39 38 40 38 38 37 36 33 32 32 30 28 27 27 26 24 24 25 25 24 23
9 9 7 9 14 17 18 28 31 34 36 38 39 37 40 37 36 36 36 34 33 32 31 29 27 29 28 27 27 28 29 27 24
10 9 8 9 11 14 20 28 32 35 39 38 39 36 36 36 36 36 36 36 34 33 32 29 29 28 29 29 30 30 31 32 29
8 8 10 11 11 14 22 26 30 32 33 36 35 34 36 36 35 35 34 34 35 33 32 31 30 29 30 30 31 32 34 34 31
8 10 12 14 18 22 21 23 28 31 32 35 34 36 36 37 37 35 35 34 33 33 31 29 30 30 30 31 31 33 35 35 28
10 11 14 17 21 23 25 26 29 31 34 35 36 38 40 38 37 36 35 34 34 33 31 31 30 30 30 31 30 30 34 34 28
10 12 18 21 21 23 27 27 33 30 33 36 40 35 33 33 34 34 32 31 31 32 32 28 29 28 28 29 29 29 30 33 31
13 15 16 13 10 16 21 27 30 28 31 28 29 31 32 32 33 32 30 30 29 29 28 28 26 27 26 27 27 29 29 33 35
13 15 18 19 4 6 12 21 24 23 21 22 26 26 28 30 30 30 27 29 28 27 27 26 26 26 25 24 24 25 30 32 31
13 16 18 20 17 14 10 11 17 20 22 23 25 25 25 25 25 26 27 26 27 27 27 28 26 25 24 23 24 23 21 24 28
11 16 23 23 18 16 17 20 18 12 14 21 23 23 22 21 20 22 21 19 16 23 22 24 25 23 22 22 22 22 21 19 18
14 17 22 23 25 23 22 22 21 18 12 7 18 19 21 20 18 19 17 18 5 7 9 8 19 16 16 15 14 12 18 19 14
20 22 23 22 21 22 22 24 25 24 16 11 7 14 16 13 14 16 18 16 13 10 13 18 16 17 18 12 12 13 14 16 17

GFSFLT1_925_spd_051.txt.gz
Wind_Speed
26 26 24 25 26 34 36 38 38 37 37 36 34 34 33 33 27 25 26 21 19 19 18 15 19 17 15 13 12 10 10 9 10
20 27 25 25 26 34 36 37 39 41 38 39 37 37 33 32 32 30 26 26 27 18 18 15 15 15 15 16 14 13 13 12 11
15 22 25 23 24 33 37 40 40 39 37 39 39 38 37 35 33 32 29 26 23 24 19 19 10 18 17 17 17 16 16 14 14
18 17 19 19 22 33 37 37 38 41 39 36 38 39 38 37 36 33 33 27 27 24 21 18 19 15 17 19 19 19 18 18 12
25 23 18 20 21 29 34 36 38 39 41 42 41 41 38 39 37 36 34 33 29 26 26 23 20 20 19 20 21 21 21 20 18
20 22 23 20 21 22 29 35 35 38 39 42 41 39 40 37 37 37 36 35 33 30 28 26 25 24 22 22 23 22 22 22 21
22 17 20 21 21 21 27 31 34 34 38 40 39 39 40 39 39 39 38 35 34 33 31 29 27 26 26 24 24 24 24 23 23
14 16 19 18 20 17 20 26 30 34 35 36 39 38 38 39 40 40 38 37 35 34 33 32 30 28 27 27 25 25 26 24 23
8 9 8 9 16 15 19 25 28 33 36 35 39 37 40 39 39 38 39 38 37 35 33 33 31 29 28 29 28 27 28 28 25
19 13 11 8 11 16 18 24 27 29 37 38 36 35 37 35 37 39 38 39 37 37 35 32 31 30 29 30 31 29 29 31 29
12 9 2 7 11 13 16 23 29 31 31 36 34 36 34 37 36 38 37 37 38 37 36 35 32 31 31 31 32 33 33 31 32
7 8 9 12 17 18 17 18 21 27 30 33 35 33 36 39 39 37 36 37 37 36 34 33 33 32 32 32 32 33 36 33 28
7 9 14 16 18 19 20 23 22 25 32 31 35 37 41 38 38 37 38 38 37 35 34 34 34 33 32 32 32 33 34 35 30
6 9 12 16 20 22 24 25 27 25 29 33 39 37 32 34 37 38 37 35 34 34 34 33 32 31 30 30 33 32 35 38 34
6 9 12 14 19 22 25 27 27 27 26 36 29 32 32 33 34 34 32 32 32 31 30 29 27 28 28 30 30 33 34 34 37
9 11 14 18 22 19 16 20 26 24 30 26 30 30 32 31 31 31 29 31 30 29 28 28 28 27 29 28 29 30 33 32 35
11 15 18 20 18 12 16 9 18 24 23 26 27 28 29 28 30 29 28 29 29 27 28 27 26 26 25 26 26 26 25 30 36
12 14 20 20 17 18 21 22 19 0 19 23 25 27 27 28 29 29 27 24 26 27 16 22 27 25 25 24 24 27 27 25 22
12 16 18 20 20 22 23 23 25 27 11 17 25 26 26 28 29 29 27 20 13 13 10 10 15 10 6 6 12 16 24 27 20
13 17 17 18 21 21 21 22 25 26 22 5 17 25 27 29 27 31 26 27 22 18 13 10 6 5 5 2 2 3 12 19 20

GFSFLT1_925_spd_054.txt.gz
Wind_Speed
9 26 25 25 27 32 38 39 40 40 41 39 39 34 36 31 28 32 27 14 18 14 16 21 25 24 18 15 12 11 10 9 10
23 11 16 25 24 31 36 36 40 41 42 40 40 41 35 35 29 29 26 21 21 17 20 13 22 25 19 15 15 12 13 12 10
14 12 18 10 22 29 34 38 38 38 38 41 40 40 38 36 37 34 28 32 24 24 19 20 20 22 20 19 17 16 15 15 13
23 30 17 8 15 27 34 36 36 39 37 39 39 38 38 36 36 36 38 27 33 25 28 17 19 16 18 19 20 18 17 19 15
23 22 21 20 11 40 36 37 38 39 39 38 41 40 38 38 36 37 36 39 28 33 27 27 18 21 17 19 19 20 21 21 19
6 24 21 24 25 31 33 38 37 37 39 40 38 37 37 36 37 37 37 37 37 33 34 27 27 21 24 21 22 22 23 23 22
9 8 30 28 25 7 25 35 36 36 38 38 38 39 37 38 40 39 39 36 39 34 33 33 30 29 26 26 25 25 24 24 24
20 13 11 11 11 29 31 33 36 36 34 38 38 37 40 40 39 40 38 37 37 39 36 34 32 31 29 29 28 28 27 26 25
22 22 19 7 8 12 20 29 35 38 37 37 38 38 41 39 39 38 37 39 36 37 38 35 33 32 32 30 31 30 29 30 28
21 25 29 8 7 2 2 18 35 36 40 38 38 35 35 37 38 38 40 37 38 36 37 36 35 34 32 32 33 34 32 32 32
21 20 28 15 5 7 12 18 18 30 33 35 35 37 33 37 37 40 38 38 37 38 35 37 36 34 34 33 34 36 35 32 34
19 19 22 13 15 18 21 23 19 19 31 35 33 34 37 39 40 38 39 39 39 38 35 35 35 34 34 35 33 35 38 36 33
12 17 17 16 16 15 18 23 22 20 20 30 36 37 40 37 40 38 41 41 39 37 37 37 35 35 35 35 35 35 37 39 37
9 4 25 20 19 16 17 23 25 24 22 24 36 39 33 35 38 40 37 35 35 35 35 33 33 33 32 32 36 34 38 38 40
10 7 14 15 17 16 20 26 27 28 27 26 29 33 34 31 35 36 34 36 34 34 33 33 31 31 28 30 31 35 35 37 40
5 7 11 12 15 18 14 20 15 29 33 30 20 30 36 34 33 33 33 34 32 31 32 30 30 27 28 27 28 32 35 37 38
3 6 8 10 12 10 14 19 24 14 30 30 23 29 31 33 31 32 33 29 33 31 30 30 27 29 26 27 27 28 32 37 39
6 8 12 12 12 13 16 18 16 17 18 18 25 27 29 31 30 33 31 31 30 30 31 32 31 27 29 25 27 31 29 33 37
8 10 12 14 18 18 20 20 18 17 19 15 26 26 27 29 28 29 29 30 18 29 31 31 33 35 26 24 18 21 30 37 34
8 11 13 16 17 18 20 21 21 22 21 17 9 21 24 25 27 29 31 30 23 18 17 17 19 21 24 17 13 12 15 17 29

GFSFLT1_925_spd_057.txt.gz
Wind_Speed
24 18 6 20 24 31 31 37 39 38 40 39 40 43 43 33 32 31 26 15 27 30 26 26 26 22 19 16 15 11 11 11 12
10 9 7 8 12 34 34 33 39 42 40 40 41 43 45 42 34 36 33 26 18 25 24 24 27 28 24 19 17 16 14 12 10
17 18 11 4 6 14 31 34 36 36 38 39 39 39 42 43 41 40 38 33 26 19 24 19 12 32 28 23 20 17 16 14 12
22 18 20 16 13 18 20 34 33 38 37 39 38 40 37 38 39 41 39 35 33 25 22 18 17 29 28 25 23 18 18 18 15
25 24 17 17 18 21 28 25 38 38 38 42 42 40 38 37 38 40 42 39 37 34 28 26 18 25 27 26 26 23 21 21 19
15 18 22 22 24 24 31 31 28 38 39 40 41 39 39 36 36 41 39 42 37 38 36 32 31 25 30 28 27 24 24 24 23
16 10 9 12 16 17 31 28 15 36 39 39 41 40 39 40 40 38 42 39 44 38 35 36 35 32 29 29 28 27 25 25 26
13 12 6 5 9 15 15 21 22 16 38 43 40 42 41 41 40 38 35 37 40 47 37 41 38 34 33 30 30 29 28 28 28
12 10 5 5 15 24 17 29 29 22 19 41 43 41 42 40 38 40 39 37 37 42 43 37 42 40 37 33 31 32 31 30 31
17 15 11 10 13 13 22 9 15 27 37 38 41 41 40 41 41 39 40 37 37 37 41 38 35 38 36 38 38 34 33 32 32
17 22 22 10 9 5 16 13 2 8 11 16 39 42 40 42 41 42 38 38 39 36 35 38 36 35 36 37 39 39 36 35 34
18 19 20 17 13 19 8 13 9 12 21 34 14 29 40 42 43 41 38 41 39 40 35 34 37 35 35 36 36 38 40 37 38
20 25 28 23 23 23 21 7 16 28 33 33 29 33 34 39 42 41 42 42 40 35 37 36 31 34 35 38 38 38 39 41 41
27 28 30 27 22 18 21 16 12 17 14 32 39 40 36 36 42 42 42 38 37 38 34 34 34 33 33 32 36 37 40 40 42
21 24 30 15 14 18 23 25 21 5 34 45 25 20 30 37 40 39 37 39 36 36 35 33 32 31 29 32 34 38 39 41 43
21 31 9 12 14 17 19 19 25 26 30 16 17 17 36 36 36 39 35 37 36 33 33 32 30 29 30 30 31 34 40 42 43
14 10 9 10 10 10 11 17 20 22 24 20 15 19 22 37 32 33 35 34 36 35 34 32 30 30 30 29 29 30 32 39 42
5 4 6 6 6 7 9 12 16 20 22 19 17 17 24 29 32 34 33 32 33 36 37 38 35 33 31 28 28 35 34 36 42
7 2 3 4 8 11 13 14 15 18 18 19 18 18 18 25 30 29 30 31 29 35 34 37 39 36 33 32 33 30 34 35 37
10 6 7 9 10 13 15 17 16 19 20 18 17 15 16 24 30 28 29 28 26 21 24 33 39 40 38 33 34 38 30 37 38

GFSFLT1_925_spd_060.txt.gz
Wind_Speed
14 14 11 14 20 28 38 39 38 37 38 39 43 42 38 36 34 31 26 23 31 32 32 28 26 25 21 18 18 15 15 14 12
19 17 15 16 26 31 35 39 41 41 40 39 43 45 43 40 37 35 33 23 26 31 32 30 30 26 24 21 20 18 15 15 13
18 17 16 13 22 34 31 39 41 40 42 41 44 44 44 44 42 39 38 33 25 26 27 31 28 30 28 24 22 20 18 15 14
17 17 16 11 15 26 27 32 35 37 37 39 36 39 41 40 42 42 40 38 35 29 24 29 28 28 32 29 25 23 21 18 15
8 8 4 6 14 21 27 31 34 37 38 40 42 41 38 39 43 46 43 42 42 37 31 24 30 26 28 35 30 25 24 21 19
12 8 7 2 4 13 14 14 26 36 39 42 41 38 39 37 37 40 43 42 44 42 37 30 23 23 25 33 33 28 26 24 22
8 7 6 5 7 5 4 10 13 19 35 38 40 40 39 38 39 39 42 43 41 44 40 40 32 28 28 34 34 31 28 27 25
10 6 5 6 8 12 10 15 17 22 19 33 37 38 38 40 37 39 40 41 42 45 47 42 42 36 32 32 35 35 34 31 28
14 15 14 10 16 17 25 19 21 23 24 20 35 38 39 38 38 36 37 40 42 43 46 47 43 41 41 37 37 37 36 32 30
12 11 12 12 12 15 17 21 14 8 23 22 18 34 36 37 37 37 37 35 38 38 41 43 41 40 41 40 40 38 36 33 32
12 11 13 14 16 19 13 18 6 4 5 18 25 13 30 33 36 36 36 36 36 36 35 38 38 39 40 40 42 41 39 36 35
12 12 13 20 23 25 26 21 23 8 11 10 12 15 13 19 33 33 35 37 37 36 33 34 37 37 37 40 40 42 44 42 38
10 21 26 22 30 26 14 14 21 24 22 20 26 24 16 15 11 32 37 37 37 37 37 36 33 35 37 38 39 39 42 41 41
12 12 23 28 22 19 8 10 16 20 28 25 27 21 16 17 24 25 37 37 36 37 36 34 34 34 35 37 41 40 41 42 43
18 20 21 20 14 14 10 10 8 10 24 31 30 30 27 27 32 32 35 37 37 37 34 35 35 32 33 36 36 41 41 43 44
14 20 22 18 17 8 15 8 8 9 13 20 16 24 25 38 38 40 42 39 39 35 35 33 32 33 33 32 32 34 40 44 45
13 18 19 17 16 8 9 10 9 10 7 13 22 30 35 36 35 35 40 39 41 38 36 36 33 33 32 29 29 32 33 39 43
20 18 25 18 15 10 12 13 13 6 9 7 15 22 31 32 29 35 35 37 38 40 42 43 39 37 32 30 31 34 35 33 39
23 21 23 16 14 10 9 12 15 12 12 10 13 17 21 22 25 25 32 31 34 41 39 41 45 40 36 34 36 31 33 35 36
22 20 18 14 10 6 5 11 13 11 13 14 19 19 22 23 21 23 24 29 27 27 36 39 41 44 41 37 31 35 31 32 37

GFSFLT1_925_spd_063.txt.gz
Wind_Speed
16 16 15 17 17 29 32 35 36 38 37 37 42 41 37 32 31 30 25 20 19 26 27 25 23 22 18 15 15 14 14 14 12
16 17 17 19 18 29 32 36 37 40 39 38 43 45 40 36 31 33 32 26 20 22 27 28 26 23 21 20 16 17 16 17 16
18 14 16 15 17 28 33 37 39 40 43 44 48 46 43 40 36 34 34 31 26 20 24 27 27 26 23 22 20 18 18 17 16
14 10 7 10 15 20 29 32 34 34 34 36 36 41 44 41 40 36 35 33 31 28 20 23 25 27 25 25 23 21 20 19 16
6 5 5 6 7 13 9 15 24 29 30 33 34 39 42 42 43 41 39 37 36 32 30 23 21 24 25 26 28 26 24 22 20
14 11 12 11 11 11 11 7 18 23 30 31 31 34 35 37 37 40 41 41 39 36 33 32 27 22 27 28 28 30 29 25 23
15 13 13 8 8 4 9 11 8 23 28 28 30 30 32 34 37 40 43 42 42 41 39 36 33 30 25 29 31 27 31 29 27
17 16 16 14 11 9 13 17 18 18 22 31 33 30 30 34 35 38 41 40 42 43 43 41 38 34 33 28 28 28 31 31 30
14 13 13 12 13 18 17 19 19 22 23 27 34 37 35 34 33 34 37 40 41 40 42 45 43 41 37 37 33 31 31 33 34
12 12 13 11 9 12 23 19 16 16 12 21 27 34 35 37 36 34 37 39 38 39 40 40 41 46 44 42 39 38 36 35 36
14 14 13 12 16 20 23 28 21 21 14 6 15 27 31 33 33 36 34 34 37 39 37 39 39 38 40 42 42 43 40 38 38
11 12 17 18 18 24 29 26 22 24 21 13 6 15 20 31 36 35 34 34 35 36 33 33 35 37 37 39 40 40 44 40 40
21 24 22 23 25 26 27 24 26 24 20 14 16 15 14 13 25 31 33 35 34 33 33 34 32 33 38 40 38 39 41 41 42
25 29 30 29 24 23 25 27 21 22 16 15 15 13 9 10 17 15 25 30 33 30 31 29 28 31 33 36 38 39 38 40 43
26 26 31 33 27 26 24 28 23 20 19 20 19 15 14 10 15 21 17 19 28 30 29 29 30 29 29 31 34 36 38 40 42
19 26 28 30 31 29 27 26 29 17 24 26 22 20 19 18 17 17 22 25 26 28 30 30 29 29 30 29 27 32 37 39 41
14 20 25 28 28 32 30 25 25 32 27 25 23 20 16 16 15 18 18 29 31 31 29 30 30 29 28 26 26 28 28 32 38
11 15 24 29 29 28 31 29 29 32 29 23 24 19 11 16 14 16 18 20 23 27 33 34 32 33 30 29 29 32 34 36 38
15 15 24 29 32 31 31 29 31 28 27 22 19 19 14 15 19 18 18 15 24 26 38 38 41 40 36 32 34 28 32 36 37
20 19 16 21 26 29 28 26 24 23 22 21 20 20 17 17 22 24 24 22 12 18 34 39 41 42 44 39 37 33 32 32 35

GFSFLT1_925_spd_066.txt.gz
Wind_Speed
13 15 14 16 16 24 27 31 34 34 36 36 40 44 42 38 34 30 26 22 21 17 18 18 15 14 13 9 9 9 9 11 11
13 16 17 14 17 25 27 30 33 36 36 37 39 44 44 41 36 33 30 24 21 17 17 19 20 17 15 14 12 10 11 12 12
8 10 13 13 12 21 25 28 33 35 37 40 43 44 44 42 39 35 32 28 24 20 14 16 19 20 18 16 16 13 12 12 11
5 7 6 6 7 15 21 23 25 29 31 33 32 33 38 38 39 37 33 33 30 25 20 15 18 20 18 19 18 16 16 14 13
17 13 9 6 9 9 13 20 22 25 27 28 33 39 38 40 41 39 37 35 35 31 28 24 16 17 16 17 20 19 19 18 16
16 17 16 13 13 12 8 9 11 19 24 23 26 29 32 34 38 39 39 38 36 35 33 30 26 20 18 19 19 20 21 23 21
17 17 15 14 14 15 14 11 1 13 24 27 28 29 31 31 36 40 42 40 39 37 36 35 33 30 26 22 20 21 21 21 25
16 17 16 14 13 14 20 19 14 10 10 29 34 33 34 38 40 40 40 39 40 39 39 39 38 36 32 29 25 23 23 23 24
12 13 16 14 14 20 21 20 22 18 15 8 24 33 33 33 33 36 40 41 40 40 39 39 41 40 39 37 34 31 27 24 24
9 12 12 13 13 17 24 26 27 24 23 16 10 22 30 33 35 34 36 38 38 39 41 40 40 41 41 41 40 38 35 32 28
9 11 14 14 18 20 24 32 25 24 23 23 11 8 22 28 35 34 33 32 35 39 38 37 39 40 41 42 44 42 40 38 36
10 12 18 21 23 23 26 29 28 23 22 23 19 10 11 24 27 33 34 32 34 36 32 34 36 37 37 39 42 41 41 41 40
23 21 23 27 30 28 24 25 28 24 21 20 21 16 14 14 22 27 30 36 33 33 32 34 33 34 37 39 41 39 37 37 39
26 27 30 28 27 28 27 24 26 23 25 20 19 15 14 13 12 18 27 29 32 31 32 29 29 30 33 36 38 40 36 34 38
26 27 27 27 24 28 31 26 21 24 20 26 20 18 14 13 13 13 19 21 30 33 32 31 30 28 28 32 38 37 36 34 35
24 28 27 24 24 28 31 31 23 22 24 24 22 22 18 14 15 14 16 18 23 24 30 30 29 28 28 28 29 35 34 35 35
20 25 22 23 23 27 33 30 31 27 24 23 23 22 22 17 16 16 17 15 21 26 26 27 28 27 28 27 26 29 29 33 37
23 24 24 24 25 27 32 36 36 35 25 22 22 22 21 20 16 14 15 16 19 23 32 32 30 32 30 27 27 32 33 33 37
25 24 24 23 27 29 29 33 36 36 28 23 19 19 15 16 17 19 18 18 18 17 24 31 39 39 33 31 35 28 31 31 34
25 26 23 23 25 28 30 30 35 32 26 22 22 18 15 16 17 17 20 18 15 14 21 24 35 39 44 37 32 29 30 28 28

GFSFLT1_925_spd_069.txt.gz
Wind_Speed
13 19 20 21 25 30 29 28 27 25 23 25 26 27 30 31 28 22 20 19 16 14 13 12 11 12 10 8 9 9 9 8 7
5 14 19 20 24 29 30 29 28 27 25 25 27 30 28 29 29 28 22 20 21 16 15 12 13 12 11 10 9 8 9 8 9
10 8 14 15 20 24 26 28 28 27 27 27 31 30 29 28 28 30 27 24 24 20 18 16 13 15 15 13 12 12 11 10 9
18 11 4 9 12 17 21 22 24 26 25 24 25 26 28 27 26 28 28 25 26 25 22 17 14 15 15 15 15 14 14 12 11
19 19 17 14 3 4 13 16 18 21 23 24 26 27 28 29 32 28 25 29 28 29 26 23 18 15 15 15 16 16 16 13 13
16 19 20 18 22 22 16 2 8 16 19 21 20 22 24 25 26 26 28 28 30 29 29 26 22 20 17 16 17 18 18 17 16
15 15 16 15 18 22 22 20 17 9 8 15 18 20 23 26 30 31 30 29 29 31 33 31 27 26 24 20 19 19 18 18 17
15 15 16 16 14 19 22 25 22 18 14 9 15 21 23 26 29 33 37 33 30 31 29 31 34 29 26 25 21 20 19 18 18
13 15 15 14 17 20 21 23 24 20 19 19 15 17 25 25 25 26 27 30 36 30 31 32 30 30 29 28 27 27 27 23 18
11 14 16 16 16 21 22 24 26 22 22 21 18 16 19 24 24 25 27 28 27 28 29 30 29 30 31 35 35 34 35 32 25
11 15 16 17 21 23 24 27 28 27 24 22 21 17 10 18 23 25 25 24 27 28 28 28 30 29 31 34 36 41 41 40 36
15 18 20 20 21 23 25 24 25 30 27 23 20 18 14 9 17 21 23 25 26 26 24 25 28 28 29 29 37 39 40 40 33
26 25 25 25 25 23 22 23 24 25 25 24 21 21 19 14 10 13 19 22 24 24 23 24 24 25 26 30 34 37 38 37 32
22 23 26 28 27 23 21 21 23 25 27 24 25 22 19 19 16 11 12 14 19 21 23 23 23 25 26 28 30 34 37 35 34
21 24 24 23 25 28 24 21 21 23 25 32 28 30 23 19 22 18 12 10 14 18 23 25 25 25 26 26 29 34 36 35 35
23 24 24 23 24 24 28 23 21 24 25 25 31 29 26 24 20 21 17 13 12 15 19 25 23 23 24 26 26 28 33 38 36
23 25 25 26 26 26 27 27 26 27 27 26 26 30 28 28 22 21 18 17 15 14 20 21 23 24 25 26 26 27 27 27 37
23 22 22 24 25 27 29 28 31 30 31 29 28 27 28 25 25 21 20 18 18 17 20 23 27 27 26 26 27 29 31 29 27
18 21 23 24 25 26 28 31 32 33 29 28 29 29 27 23 20 20 22 21 23 23 25 25 28 34 34 28 33 32 31 34 36
22 22 23 24 26 25 26 29 30 29 30 27 27 29 25 22 21 20 21 23 23 23 19 20 23 26 32 39 47 35 35 35 31

GFSFLT1_925_spd_072.txt.gz
Wind_Speed
15 19 19 20 22 26 27 26 24 23 22 21 23 24 23 20 18 16 16 15 12 13 10 9 10 11 10 9 9 10 9 9 10
3 15 16 18 22 24 26 27 27 25 22 20 21 23 22 21 20 20 18 15 13 14 11 10 10 12 12 10 10 11 10 10 9
13 4 10 13 18 21 23 25 26 25 24 22 21 20 22 22 22 20 19 17 16 14 13 13 12 14 13 12 12 10 10 10 10
17 20 17 14 9 15 15 19 22 23 24 23 21 20 21 22 22 22 20 20 18 18 16 15 16 15 15 14 13 13 12 10 9
16 17 17 18 25 29 20 11 17 20 21 23 23 22 20 23 22 21 21 21 21 19 19 18 16 14 16 16 16 15 14 13 11
14 16 18 18 24 24 24 22 26 7 15 17 18 17 19 20 21 22 23 22 21 20 20 21 19 17 15 15 16 17 17 16 14
14 15 16 15 15 20 23 24 21 23 18 8 11 15 16 19 20 23 24 25 22 21 21 22 23 21 18 16 17 18 18 17 16
13 15 16 15 14 16 17 20 22 18 18 16 11 12 15 18 18 20 22 23 23 23 23 23 24 24 23 21 20 21 21 20 18
12 13 12 14 17 19 19 18 18 18 20 18 19 12 12 17 18 18 19 20 23 25 25 24 24 24 25 25 26 25 24 23 20
10 12 13 14 12 16 19 20 19 20 22 18 17 19 15 10 17 18 18 19 20 21 25 28 28 27 27 28 29 30 30 29 27
10 12 13 14 17 17 18 18 17 18 18 18 19 22 22 18 10 15 16 18 20 22 24 25 28 30 30 30 30 31 33 35 32
11 13 14 15 17 18 18 18 18 19 21 18 18 20 22 21 21 9 8 18 20 22 23 25 26 28 29 29 31 32 34 35 32
15 15 17 18 18 17 16 17 18 19 18 17 18 22 21 20 20 22 12 18 20 23 25 25 24 26 28 29 30 30 35 37 31
14 15 16 18 20 18 16 16 18 18 18 17 18 20 22 23 21 22 19 21 20 21 23 25 25 25 26 27 28 29 30 33 33
15 16 17 17 18 19 20 19 18 19 19 19 21 23 24 22 21 20 20 21 22 17 21 25 25 25 25 28 29 29 30 32 35
13 15 17 18 18 20 20 20 20 21 21 22 23 24 25 25 22 21 21 21 19 20 21 23 24 23 25 26 27 27 30 33 34
12 13 16 17 18 20 20 19 21 24 25 24 25 27 26 27 25 23 22 22 21 20 21 23 19 22 24 26 24 27 28 25 29
14 14 15 16 17 19 23 24 23 22 24 27 28 28 27 26 25 25 25 24 24 23 22 25 19 22 21 24 28 28 28 27 25
15 18 19 19 19 20 24 25 25 25 24 25 28 28 27 25 25 24 25 24 26 27 28 28 28 34 35 30 28 27 22 21 27
15 17 19 21 19 20 25 25 26 27 26 24 25 26 28 27 26 26 25 25 25 27 27 27 28 31 32 36 39 35 36 27 28

GFSFLT1_925_spd_075.txt.gz
Wind_Speed
19 20 21 21 23 28 27 26 28 26 25 22 21 20 19 17 16 14 14 11 12 9 12 14 16 11 10 10 10 8 9 9 9
15 17 17 22 23 27 28 24 29 26 25 22 21 21 20 18 18 17 15 13 11 10 10 8 11 10 11 10 9 10 10 11 12
18 18 14 15 11 10 29 27 27 27 25 23 21 20 20 20 20 18 16 13 14 12 9 10 7 13 11 11 10 9 10 13 11
16 16 15 16 20 18 24 22 22 28 27 24 22 20 19 18 19 20 19 18 16 16 13 10 9 6 10 10 11 12 12 12 8
14 15 15 14 21 24 23 25 25 11 23 26 24 22 20 19 18 19 20 19 19 17 17 15 14 12 13 14 14 13 14 14 12
13 15 17 15 23 26 26 22 21 25 16 12 19 24 22 20 19 19 19 20 19 19 18 18 17 17 16 15 16 16 16 16 15
13 14 14 14 16 21 21 20 22 22 22 21 21 11 13 18 17 17 19 20 19 19 20 19 19 19 19 18 17 17 17 18 17
13 14 15 14 14 15 18 17 22 24 18 19 19 18 12 8 11 14 16 18 20 21 20 21 21 21 21 20 19 20 21 20 19
13 13 11 12 14 16 17 18 16 20 19 19 18 18 17 15 8 7 14 16 18 19 22 22 22 22 23 24 25 25 24 22 23
10 10 10 9 11 13 13 12 12 12 14 17 17 16 16 18 17 10 12 11 17 18 21 22 24 25 24 26 28 28 27 27 26
8 8 8 8 11 10 10 9 10 11 12 11 13 14 15 19 18 16 11 14 17 17 19 20 23 25 26 26 28 32 32 32 31
7 7 7 9 10 11 10 10 10 10 12 9 10 12 14 17 18 19 18 16 14 18 18 21 22 23 25 27 29 31 33 35 31
7 8 9 9 10 10 9 10 11 12 11 12 12 14 14 15 15 16 18 18 20 21 20 21 22 23 27 28 29 29 33 33 33
6 7 9 11 11 11 11 12 13 12 12 12 13 15 16 16 16 17 15 15 15 20 21 22 22 23 25 27 28 30 33 32 33
7 7 8 9 11 13 14 14 14 14 14 14 16 18 19 19 18 17 17 18 18 17 18 21 18 21 23 27 30 31 29 31 35
6 7 8 9 9 11 12 14 15 17 17 18 19 21 22 22 22 21 19 18 19 19 19 19 17 21 17 23 28 30 32 37 38
6 8 9 11 13 12 12 14 16 18 20 20 21 23 25 25 25 25 23 22 22 21 22 19 18 18 15 23 25 27 29 26 37
6 8 11 13 14 14 17 16 18 19 19 21 24 25 26 27 27 27 26 25 24 23 23 22 19 20 19 16 21 22 20 16 12
5 7 8 11 13 16 17 18 20 20 19 20 23 26 26 25 26 27 27 26 27 26 27 25 29 30 32 33 31 34 37 32 25
5 8 9 11 11 15 17 19 20 20 21 21 23 25 26 27 28 27 28 27 28 28 26 26 28 30 31 33 34 32 30 31 30

GFSFLT1_925_spd_078.txt.gz
Wind_Speed
18 24 21 9 20 23 23 27 27 32 31 26 24 24 20 19 14 10 12 15 15 12 7 9 5 11 11 10 8 8 8 8 10
20 20 14 3 27 25 22 30 27 33 34 30 27 25 22 21 20 17 13 16 14 9 6 13 13 12 12 10 11 9 11 12 12
16 16 15 15 20 11 33 28 29 32 34 32 29 26 25 23 22 20 18 10 9 6 12 13 6 13 13 12 12 10 11 11 11
15 15 14 6 18 19 15 15 3 19 31 30 25 25 26 25 25 23 19 16 11 15 7 4 16 19 12 12 13 12 13 13 8
18 16 13 13 16 11 12 25 18 12 15 10 25 25 24 25 25 23 22 20 17 15 15 14 11 9 10 17 13 14 14 13 12
16 16 13 11 13 15 20 23 19 22 17 20 20 9 28 24 24 23 23 24 21 19 18 18 16 16 16 14 14 14 15 15 15
15 16 14 10 11 16 18 22 18 13 18 11 21 28 13 12 28 27 24 20 21 19 20 19 20 18 19 18 17 17 17 16 18
14 16 15 13 11 14 17 19 16 17 14 16 17 17 20 6 13 16 12 14 15 18 20 22 21 21 21 20 21 19 20 20 20
13 13 15 13 14 15 14 16 13 15 20 14 13 14 15 15 3 6 8 10 16 16 19 20 21 23 22 24 23 23 23 22 21
12 13 11 13 13 15 14 14 14 14 15 16 18 17 12 14 14 12 7 8 11 15 19 19 21 22 23 24 26 27 25 22 25
10 10 10 10 13 13 11 12 12 14 12 13 13 12 14 15 13 12 13 14 12 7 13 16 20 21 23 25 25 27 30 28 25
8 7 11 10 10 8 8 10 8 9 9 10 9 13 15 17 19 15 11 11 14 13 11 12 20 22 23 23 25 28 29 29 32
9 9 9 8 8 7 9 10 10 10 9 9 9 12 15 15 16 17 18 16 16 18 15 14 14 19 24 27 28 27 30 32 31
8 8 9 7 7 8 9 10 11 11 11 11 13 14 15 16 17 18 18 17 17 15 18 18 20 20 23 26 26 28 30 32 33
6 5 6 6 7 8 8 9 10 10 12 16 17 19 19 18 18 18 18 20 21 21 19 19 19 21 23 24 26 28 31 32 31
6 4 5 5 7 7 8 9 11 11 12 14 16 17 18 20 22 22 21 21 21 20 19 20 21 20 19 21 20 24 28 33 34
5 6 5 7 8 8 9 11 11 13 16 17 17 18 19 20 20 23 25 24 22 22 20 20 22 20 20 19 18 18 17 17 10
6 2 4 5 6 8 9 11 13 14 16 18 20 21 21 22 21 21 22 22 23 24 25 24 24 26 22 20 18 16 18 14 26
0 3 2 6 8 8 9 11 12 15 16 16 18 21 22 22 24 23 23 25 28 29 31 32 30 36 34 34 35 35 33 30 28
3 7 4 7 8 9 10 12 13 15 17 18 18 20 21 23 25 25 25 24 26 29 30 29 32 31 31 32 34 31 31 37 33

GFSFLT1_925_spd_081.txt.gz
Wind_Speed
10 9 3 9 15 28 28 30 33 32 34 30 28 24 23 19 14 12 10 17 14 13 14 15 15 13 14 12 12 11 9 10 10
14 10 10 5 3 3 17 29 28 32 33 32 29 27 25 24 21 19 15 16 12 14 17 13 15 15 11 12 12 10 11 11 7
12 12 9 11 8 12 11 4 10 29 32 34 32 28 26 25 24 22 20 13 13 20 15 14 11 18 15 14 14 12 10 8 11
9 11 11 7 5 11 16 15 15 8 11 19 28 32 28 25 23 21 21 18 14 14 12 13 18 19 16 14 12 13 14 12 12
8 9 8 9 13 14 13 18 16 16 11 15 10 7 22 27 26 23 21 21 20 16 16 16 14 14 16 17 17 15 14 14 14
8 9 10 9 12 13 14 16 19 9 9 11 16 18 8 17 22 22 22 23 23 20 16 17 15 13 17 22 16 15 19 15 15
8 9 11 9 9 12 11 15 16 7 9 10 1 11 15 7 6 15 21 22 23 22 22 20 20 18 19 17 17 20 18 18 18
9 9 9 9 7 9 10 20 19 17 12 10 9 15 10 7 4 6 9 4 18 22 22 22 22 21 21 20 22 22 22 22 21
10 7 10 8 8 9 11 16 19 20 17 13 10 13 16 12 5 11 12 19 27 16 20 22 23 22 22 24 22 24 24 24 25
8 10 9 8 7 11 16 16 12 17 16 17 17 17 11 10 4 6 6 7 13 9 14 19 21 22 22 24 25 26 24 25 30
8 8 8 9 11 12 13 14 16 13 12 15 16 16 15 14 9 7 8 7 8 8 8 4 10 18 20 23 25 27 28 30 28
9 8 15 13 10 15 18 20 12 14 14 15 16 16 16 15 13 13 15 13 13 12 13 11 9 9 15 19 23 25 27 27 30
14 19 16 14 16 20 20 18 16 18 19 21 21 18 17 16 16 15 16 16 15 17 15 16 15 14 12 15 21 22 24 25 29
18 17 11 13 16 17 16 15 15 18 19 21 18 17 15 15 16 17 17 19 18 19 20 18 17 18 18 18 19 22 24 23 26
14 14 10 14 14 14 14 14 14 16 18 17 17 17 16 16 17 18 18 20 21 21 21 23 22 22 21 20 19 19 21 23 27
12 13 14 16 13 13 13 13 12 13 14 15 16 16 17 18 18 17 18 19 20 21 21 21 23 22 21 23 24 22 16 13 17
15 14 17 14 11 10 12 14 14 13 14 16 17 18 19 19 19 21 19 21 19 19 19 20 19 21 20 22 29 23 12 12 10
14 13 14 11 10 10 10 11 12 13 14 17 18 18 18 19 21 22 22 21 22 22 22 22 28 28 26 25 25 29 28 29 30
11 11 16 12 8 7 9 10 12 13 14 15 17 18 17 18 19 22 21 23 26 22 23 25 27 28 29 32 33 32 31 33 32
16 12 17 12 9 11 6 6 8 11 12 14 16 16 18 21 20 19 20 22 23 26 28 26 26 26 28 26 28 30 33 26 28

GFSFLT1_925_spd_084.txt.gz
Wind_Speed
3 1 6 9 16 21 25 27 32 31 33 31 28 23 22 18 15 12 11 16 17 18 15 14 12 13 13 10 10 10 10 9 8
8 8 7 9 11 11 16 21 27 35 35 33 29 26 24 22 18 16 14 13 16 16 15 16 14 17 16 14 12 12 11 12 10
8 10 11 8 11 13 10 15 15 18 28 35 32 28 26 26 22 20 18 14 14 15 18 18 20 20 19 15 14 15 14 14 14
7 8 7 7 7 9 16 12 13 13 11 20 21 23 23 23 26 25 23 20 16 16 18 17 19 18 18 17 18 14 16 14 12
7 6 6 7 9 7 17 14 18 18 13 13 10 10 16 21 23 23 24 25 21 16 17 18 17 16 17 16 18 16 16 16 14
5 5 6 7 10 9 13 13 18 22 14 12 12 9 5 7 18 22 23 24 24 22 20 21 18 16 17 19 21 18 17 17 15
6 6 6 6 7 11 13 11 12 16 15 7 6 9 9 12 3 11 15 20 21 21 22 22 23 21 18 18 20 20 21 20 21
10 8 9 8 6 10 11 13 11 11 11 9 9 10 11 6 7 4 3 5 3 8 17 23 25 22 21 20 21 21 22 22 21
10 9 9 7 9 9 10 10 14 15 12 10 10 10 9 8 2 3 8 10 12 13 14 15 21 25 23 23 23 21 24 23 23
11 9 9 7 7 12 12 11 17 21 18 18 14 9 7 7 4 1 3 10 8 10 17 16 16 23 22 23 24 24 23 22 24
10 7 7 7 10 14 15 13 9 13 18 19 18 17 16 17 10 6 4 7 9 7 8 11 11 13 18 21 23 21 23 24 25
10 7 14 18 22 22 22 21 20 23 21 20 19 18 17 16 14 12 12 9 10 14 12 12 13 11 14 14 16 16 20 22 24
15 22 24 23 21 21 20 19 19 20 19 18 17 14 13 13 12 11 11 12 11 11 13 13 13 14 16 16 15 15 16 20 23
20 24 25 23 20 20 17 14 14 19 16 16 12 11 10 10 10 11 11 12 12 14 14 15 15 15 15 16 15 18 17 17 21
18 22 21 20 20 17 13 11 11 14 15 11 9 9 10 11 12 12 12 13 14 13 15 16 15 16 16 17 16 17 18 16 18
17 24 22 20 19 17 16 13 12 15 11 10 11 11 12 12 11 12 13 14 16 18 17 19 18 18 19 20 20 19 17 19 23
18 23 21 18 16 15 12 12 12 10 9 10 10 11 12 13 15 15 15 14 14 15 17 18 19 21 21 23 26 23 22 25 28
21 23 19 17 15 12 11 9 9 8 9 11 12 12 11 13 15 16 16 16 16 15 13 14 20 19 21 20 23 26 26 26 26
26 24 23 19 15 14 11 8 6 6 8 11 13 13 13 14 15 16 16 20 24 19 15 18 18 16 18 22 25 29 29 27 25
27 28 24 21 20 16 10 4 3 4 6 11 12 13 14 16 15 16 18 20 21 23 28 23 20 20 22 23 26 29 26 26 29

GFSFLT1_925_spd_087.txt.gz
Wind_Speed
6 6 7 12 18 25 26 27 31 33 36 34 30 26 23 18 15 15 13 12 11 13 13 14 12 13 17 14 10 10 10 10 8
9 9 7 4 9 21 27 29 28 34 35 35 33 28 24 22 18 16 15 13 15 16 15 15 15 14 15 15 13 12 12 12 10
7 7 7 7 7 10 19 26 20 21 21 26 30 26 23 23 22 19 17 14 13 18 15 17 15 15 17 17 15 14 13 12 11
6 7 5 5 7 7 13 25 18 13 13 16 21 24 22 20 22 20 19 18 14 14 14 16 17 17 19 19 17 15 15 13 12
6 5 4 4 5 7 9 18 25 21 18 13 5 11 17 17 19 20 21 20 19 16 15 16 18 16 17 17 17 17 16 15 15
7 6 4 2 4 6 10 9 13 18 15 16 12 8 5 6 5 9 14 17 18 19 21 18 16 15 17 17 17 17 17 15 15
5 8 6 4 4 5 7 11 13 11 17 17 14 9 3 9 9 5 3 2 5 12 17 19 18 19 19 16 18 18 19 18 16
5 8 8 6 5 7 6 8 9 9 8 10 11 10 10 13 6 7 7 5 2 4 5 10 15 16 19 19 18 18 18 20 20
8 8 7 9 9 10 9 10 10 10 9 7 8 8 9 4 7 2 2 6 5 4 8 10 14 16 17 18 21 21 20 21 22
8 9 8 7 7 10 12 13 15 17 14 12 13 13 11 8 6 4 2 3 6 6 7 8 10 12 10 15 19 20 21 21 21
9 9 8 7 11 15 13 15 17 18 20 22 21 21 19 15 13 10 6 5 4 6 7 9 12 13 13 13 11 17 18 20 21
5 8 14 16 18 19 20 22 21 22 21 20 19 19 17 14 13 12 12 12 11 10 7 9 9 13 14 15 17 13 12 14 16
11 17 21 23 22 23 23 19 18 19 18 18 18 15 13 12 11 10 9 9 9 9 11 10 11 11 12 16 15 14 12 11 13
19 23 23 20 20 21 18 14 12 18 16 17 12 10 9 9 10 10 11 10 10 9 10 9 11 11 8 8 12 15 21 14 12
18 21 21 22 22 19 15 14 12 15 15 10 9 8 8 10 11 10 10 11 11 11 11 11 10 13 12 11 12 14 15 15 18
18 23 22 20 20 17 13 12 9 12 9 7 8 7 8 8 8 10 10 11 12 13 13 14 15 15 16 17 17 18 19 18 17
16 22 24 23 22 18 15 11 9 9 8 7 7 8 8 9 10 10 11 11 11 11 13 14 15 16 18 20 21 22 23 26 26
17 23 25 24 21 20 17 13 9 7 6 6 7 7 7 9 10 11 12 12 14 12 8 9 13 15 16 20 22 21 23 25 27
25 26 24 21 19 19 17 13 9 6 5 6 6 6 6 8 8 9 11 13 14 12 12 12 9 9 12 17 18 21 23 24 25
29 26 24 20 19 16 15 12 9 7 4 4 4 5 6 6 7 8 10 13 16 19 18 14 13 15 15 15 18 20 22 25 27

GFSFLT1_925_spd_093.txt.gz
Wind_Speed
17 18 16 17 21 21 25 22 16 23 19 22 22 22 21 19 16 10 7 7 5 6 9 7 8 9 8 10 8 6 7 6 6
17 17 16 16 20 23 24 26 24 20 19 19 20 19 17 18 17 15 10 9 7 4 7 8 9 10 9 10 10 9 7 7 8
7 8 12 11 16 18 20 23 22 12 17 13 16 17 18 17 15 13 11 10 8 6 6 9 9 10 10 10 10 12 11 9 10
6 6 7 7 9 12 14 20 26 22 17 14 15 19 19 18 16 15 14 10 8 6 7 8 9 10 11 13 12 13 14 11 11
6 5 4 5 6 8 14 18 23 21 16 13 16 19 23 20 15 16 16 15 12 9 7 6 6 7 10 11 11 12 14 13 10
4 4 4 3 4 7 11 16 16 20 17 15 14 16 17 15 13 14 16 14 14 13 11 11 10 8 6 8 9 10 11 11 11
4 3 3 3 3 4 5 11 11 16 15 16 18 20 17 15 13 9 11 10 9 9 9 9 10 10 8 6 7 6 8 10 11
5 4 4 4 4 4 5 8 18 18 17 18 19 19 16 17 14 10 5 5 6 6 5 4 5 7 8 7 7 6 7 7 9
7 6 4 5 6 6 6 8 14 18 18 19 17 14 14 15 13 10 7 6 7 5 5 6 5 3 4 5 6 10 12 12 11
9 8 8 7 8 10 10 10 13 17 16 16 17 15 13 12 12 11 10 7 7 6 5 4 5 6 7 6 2 5 11 13 12
10 9 9 10 12 14 13 16 18 19 18 19 19 17 15 13 12 9 7 6 6 4 3 5 5 6 7 6 7 2 3 5 7
10 10 12 13 14 16 16 19 20 22 21 20 19 16 14 12 11 10 9 8 7 6 4 5 5 6 9 7 10 10 4 3 3
13 14 14 14 14 16 17 16 19 21 18 17 16 13 12 11 10 9 8 7 6 6 6 6 8 11 10 8 8 9 10 6 7
16 14 16 16 16 14 16 14 13 14 11 12 10 10 9 9 8 8 8 6 6 7 7 8 9 10 9 7 6 7 11 12 8
16 15 15 16 17 15 11 10 9 11 9 8 8 8 8 8 7 5 6 5 5 6 6 7 6 6 5 6 6 8 10 10 10
16 16 14 12 13 12 9 8 8 10 8 6 6 7 7 7 6 7 6 5 5 5 6 6 4 5 4 5 6 7 11 12 12
15 14 14 12 12 10 9 6 6 8 7 6 6 6 6 6 6 6 6 5 5 5 5 5 4 5 5 6 7 10 13 14 14
16 16 13 13 12 11 10 10 8 7 7 6 6 6 5 5 5 5 6 7 6 5 6 5 4 4 4 5 6 10 12 14 14
20 20 19 17 14 13 12 10 9 8 7 6 7 6 5 5 4 4 4 5 7 9 8 6 6 5 5 4 4 8 9 8 8
21 19 19 20 19 15 15 14 12 10 8 6 6 6 7 6 5 5 5 5 6 6 6 9 9 8 8 7 9 10 11 11 10

GFSFLT1_925_spd_096.txt.gz
Wind_Speed
20 19 18 18 20 19 18 22 20 17 17 15 16 15 14 12 10 9 9 8 6 8 7 7 6 10 9 10 7 6 5 6 7
22 22 18 18 18 20 20 21 20 12 15 11 14 15 14 13 11 9 8 6 6 6 5 6 8 10 10 10 11 9 7 8 8
19 18 17 15 18 20 19 21 21 10 11 11 10 13 14 12 11 9 8 9 9 6 4 6 6 9 9 9 10 10 8 8 9
2 8 12 11 12 16 19 19 19 23 11 8 8 11 13 14 12 9 8 9 9 7 6 7 9 9 11 10 10 10 10 8 7
8 7 5 5 12 12 13 20 21 25 18 15 14 10 12 12 12 13 11 11 11 10 9 8 6 6 9 10 10 11 11 11 9
8 8 6 5 9 12 14 16 18 22 23 19 14 14 13 11 13 10 12 12 11 12 11 8 8 7 6 8 9 9 10 11 10
6 5 5 3 2 3 7 11 16 20 19 23 16 12 11 14 16 21 13 10 11 11 11 11 12 11 10 8 6 6 7 9 9
8 7 8 6 3 1 1 3 14 19 17 17 15 16 16 15 14 15 12 7 6 5 5 6 9 11 10 10 9 9 9 9 9
8 6 6 6 5 5 5 6 10 12 14 14 15 13 14 13 12 10 11 7 5 4 4 1 2 6 7 9 7 13 14 12 10
8 8 8 7 6 6 6 8 11 14 18 20 20 17 14 14 13 9 8 8 5 4 4 4 4 2 3 4 0 8 9 11 10
10 10 8 8 8 9 9 11 16 15 17 19 18 16 13 11 9 7 6 8 7 5 2 2 2 5 5 4 5 2 3 3 5
9 9 13 11 11 11 11 12 14 18 18 15 17 14 12 11 9 9 6 6 4 3 3 4 5 4 6 4 4 3 3 3 1
11 12 12 14 16 15 15 13 15 18 18 17 13 10 9 9 8 7 6 6 6 4 5 5 6 5 4 5 4 3 2 2 2
13 13 15 15 14 14 14 13 17 17 14 14 11 10 8 7 7 6 6 4 5 4 5 6 5 5 4 4 4 5 4 3 2
14 15 16 14 15 13 11 10 10 11 11 8 9 7 7 4 5 3 3 4 5 4 4 5 5 4 4 2 1 4 8 6 4
14 16 15 16 15 13 11 8 8 9 9 8 6 6 6 5 3 2 3 3 3 3 3 5 6 6 5 3 1 2 10 10 9
15 16 15 13 12 11 10 8 7 7 7 6 6 4 5 5 5 4 2 2 2 2 3 3 4 4 4 3 1 3 7 9 8
16 16 15 14 13 12 11 10 9 8 8 7 6 5 4 4 4 4 4 3 2 2 1 2 1 1 1 2 1 5 9 10 9
16 17 17 15 13 13 13 12 11 9 8 7 6 6 6 5 5 5 5 5 5 5 3 3 2 2 5 2 3 5 5 4 4
13 14 15 16 15 13 12 11 10 10 9 8 7 6 6 6 6 5 5 6 7 6 4 6 4 3 3 1 3 4 5 5 5

GFSFLT1_925_spd_102.txt.gz
Wind_Speed
11 16 13 9 8 11 25 26 19 30 24 22 19 17 14 12 8 5 6 7 2 2 7 8 9 13 11 9 8 5 4 1 5
19 18 15 10 12 23 32 14 7 33 26 23 20 17 15 11 7 8 2 3 3 3 7 8 3 5 10 8 6 6 5 5 5
24 23 20 16 15 24 18 13 16 27 23 25 21 19 17 15 12 9 6 4 4 3 2 4 12 13 13 8 8 11 10 9 5
26 26 23 16 9 18 27 29 33 33 26 24 16 11 11 13 10 10 9 7 5 2 2 1 9 9 11 12 12 12 13 13 11
6 17 25 14 21 36 34 25 19 26 27 25 20 17 11 5 12 12 12 8 1 4 5 4 6 10 10 10 12 12 13 13 11
10 11 15 23 16 20 24 23 16 17 19 20 20 18 11 8 7 10 6 3 7 7 10 10 8 8 12 14 15 14 14 15 15
10 11 9 10 13 15 14 14 18 19 16 11 12 13 12 14 13 7 6 4 9 13 10 8 10 10 12 13 11 11 11 13 13
10 9 8 7 9 9 9 15 16 14 14 15 13 13 11 12 13 12 11 12 11 13 16 13 9 11 12 10 8 9 11 11 10
9 10 11 8 7 7 9 6 6 19 17 17 17 16 15 13 13 10 8 10 10 11 13 10 9 9 7 7 5 7 8 10 8
10 11 10 9 7 8 9 5 6 10 11 18 18 16 12 10 8 6 3 2 2 4 8 9 6 4 6 1 3 6 5 7 9
14 13 12 9 13 11 7 7 8 9 14 16 16 15 14 11 10 7 5 5 3 2 2 5 5 6 4 3 6 5 4 4 5
16 11 14 15 12 11 10 10 11 14 15 17 18 15 13 12 9 7 4 2 1 2 3 2 1 3 4 3 4 4 4 3 9
16 24 18 16 13 13 13 11 14 18 18 19 18 17 15 13 13 10 8 5 5 4 2 2 4 6 4 2 5 8 4 5 3
21 21 21 17 14 13 13 13 16 19 17 16 14 12 11 9 10 8 6 3 3 3 3 5 5 6 1 3 4 7 9 5 4
19 18 18 16 16 15 14 15 15 16 15 14 14 13 12 10 8 6 5 4 3 2 3 4 5 3 2 3 3 7 12 10 6
13 13 14 15 17 16 14 13 13 14 16 13 10 10 9 8 6 5 7 3 4 2 2 2 5 6 5 7 5 2 7 9 8
12 12 13 15 15 14 12 9 10 11 13 12 10 8 7 7 7 6 6 2 2 6 4 5 4 6 5 5 2 2 6 10 7
11 13 13 13 13 13 13 12 11 11 11 9 8 6 5 5 5 6 5 2 3 3 2 2 5 3 5 5 4 2 5 10 8
16 12 10 13 12 12 12 12 13 12 10 10 10 9 8 8 9 9 11 8 3 3 2 5 8 5 1 2 5 9 9 6 2
14 13 11 11 10 13 14 11 11 10 10 9 8 7 3 7 7 12 11 11 12 9 5 7 7 8 7 6 8 6 2 4 2

GFSFLT1_925_spd_105.txt.gz
Wind_Speed
9 9 6 3 21 19 16 24 31 29 30 28 23 20 19 14 10 10 7 5 6 9 9 7 9 11 9 7 6 3 5 6 4
13 9 7 6 7 17 17 4 29 30 31 27 24 22 20 17 15 10 9 10 6 7 9 10 10 13 13 10 11 10 8 5 5
19 15 13 9 9 18 28 6 17 30 27 27 27 23 21 19 16 12 9 10 9 6 5 7 12 11 10 10 10 9 9 6 5
17 16 21 9 11 18 23 28 21 24 24 24 26 26 24 19 15 14 12 11 9 6 3 2 8 9 8 9 10 9 11 13 11
20 22 18 13 18 21 24 21 26 18 24 22 27 20 27 23 20 17 14 12 12 10 8 5 4 4 5 9 7 10 11 11 11
18 14 9 11 14 19 30 31 25 30 29 25 27 24 19 19 18 13 9 10 11 13 10 8 6 4 6 7 10 13 13 14 14
11 18 16 16 11 16 23 20 32 29 25 27 22 18 16 13 12 13 12 9 5 7 6 4 9 8 8 7 7 10 13 13 12
12 12 10 10 12 13 14 23 20 25 23 18 17 14 11 9 11 11 9 7 9 9 9 8 6 7 4 3 5 12 12 9 5
7 9 9 7 5 10 10 12 19 23 23 19 15 15 14 11 10 9 7 6 8 8 10 9 7 8 5 4 4 6 6 5 6
8 13 11 6 7 8 12 13 11 12 20 18 13 14 13 12 9 8 7 6 6 5 4 3 3 5 3 1 4 6 3 3 4
13 11 10 9 10 10 10 10 12 13 16 17 16 13 13 12 16 15 12 9 7 7 9 8 10 8 4 2 2 3 5 5 2
11 8 13 16 15 13 10 11 14 18 21 21 22 20 19 17 15 12 10 9 7 6 6 9 9 9 7 4 6 4 3 4 8
16 17 16 16 15 14 14 13 13 16 18 19 19 16 16 14 15 14 11 9 10 8 8 10 15 12 5 3 4 6 3 3 5
19 18 18 17 14 14 14 13 15 18 16 17 14 13 13 13 13 10 9 8 7 7 8 10 9 7 4 4 5 6 5 3 4
17 17 15 14 14 14 15 16 17 18 17 14 12 12 11 11 10 10 8 7 7 8 10 12 10 6 3 2 3 6 10 11 4
14 18 18 16 15 14 11 10 12 16 15 13 12 11 11 10 9 9 8 8 8 6 6 5 4 3 2 9 4 2 8 8 5
15 17 19 18 15 12 11 10 10 14 14 12 10 9 8 7 7 7 6 5 4 4 6 4 6 3 3 11 9 3 4 8 8
16 19 20 18 16 13 11 11 10 12 12 11 9 8 7 7 6 6 6 5 4 5 5 3 3 4 4 8 6 1 4 8 11
21 19 21 19 18 17 13 11 13 13 12 11 11 9 8 7 7 10 8 6 4 2 3 4 6 4 3 1 1 4 8 8 6
20 24 20 18 20 20 17 14 11 9 8 9 9 8 5 10 11 11 12 12 8 6 4 3 4 5 6 9 10 9 7 4 2

GFSFLT1_925_spd_108.txt.gz
Wind_Speed
11 8 6 7 13 23 24 26 30 32 32 27 25 23 20 19 15 14 12 12 14 13 14 14 16 14 12 8 6 5 4 2 3
13 10 7 7 16 21 25 27 28 33 34 30 28 27 23 21 18 17 15 13 10 12 12 12 15 17 15 13 10 8 7 7 4
16 15 7 7 12 23 25 28 27 25 32 32 30 28 26 24 21 16 12 12 11 8 10 10 13 15 13 12 12 10 8 9 7
18 19 13 8 11 18 28 26 26 24 20 31 31 29 26 24 21 19 14 13 12 10 8 7 12 12 9 11 10 10 10 12 9
11 18 14 11 17 22 23 24 18 20 20 26 30 28 25 23 21 18 17 14 12 12 9 6 7 9 10 10 9 7 10 11 10
8 9 13 11 16 17 20 21 17 27 25 22 27 20 21 20 19 19 18 16 14 14 10 10 8 7 6 6 9 9 11 10 10
7 9 13 11 10 15 16 20 24 25 23 23 27 29 24 31 29 23 19 19 17 13 10 11 11 8 7 7 7 8 10 12 12
9 11 10 10 8 10 15 17 13 18 20 22 25 25 26 22 18 16 18 17 12 10 10 8 4 7 10 9 8 6 5 6 6
10 12 8 7 9 12 15 15 18 15 17 22 23 22 21 19 17 15 14 10 9 10 10 9 9 9 7 6 6 5 5 7 6
12 13 11 10 8 9 14 15 17 29 20 26 23 20 18 16 15 14 10 9 8 6 7 8 9 11 10 8 3 1 0 3 3
8 9 9 10 10 10 10 11 21 31 26 29 25 20 21 17 15 13 10 8 8 7 6 10 13 12 10 7 4 2 1 0 6
10 9 10 12 12 9 7 6 13 19 25 22 20 20 20 18 21 18 13 10 10 9 10 14 12 9 7 6 8 5 3 4 7
11 17 13 11 12 11 10 9 8 16 21 24 23 24 24 23 20 17 15 13 10 9 12 13 12 11 6 4 6 5 2 4 7
13 14 14 12 10 10 10 9 12 16 16 19 16 16 17 17 16 15 14 13 12 11 15 16 14 9 7 4 5 5 4 2 2
11 12 11 9 12 11 8 7 11 14 14 13 12 12 13 14 12 11 11 10 11 13 17 16 13 11 8 7 7 6 6 4 2
12 12 13 10 11 11 8 9 9 14 12 11 11 11 11 9 8 7 6 8 8 10 12 14 12 10 11 11 8 3 4 5 3
10 12 14 13 12 9 7 8 9 11 12 10 10 11 9 8 8 6 5 4 5 6 5 5 6 4 6 13 9 5 1 2 4
17 19 18 15 13 11 9 8 8 9 9 9 9 8 8 7 6 5 5 4 5 5 4 4 3 2 3 12 11 5 2 3 5
15 16 20 17 15 11 10 8 10 9 8 6 4 4 5 5 5 6 6 4 4 3 3 2 1 2 3 4 6 4 3 5 4
21 18 21 21 19 14 11 8 6 5 5 4 3 2 1 4 7 9 9 9 8 6 4 3 1 2 4 6 10 10 7 5 2

GFSFLT1_925_spd_111.txt.gz
Wind_Speed
10 8 14 16 21 23 27 30 30 32 34 31 27 25 24 20 18 16 16 13 13 14 15 18 16 14 12 13 8 6 9 6 5
15 10 7 16 20 25 28 27 32 36 36 33 28 26 23 21 19 17 16 13 12 15 14 13 14 15 15 14 11 10 8 6 4
20 22 11 7 16 25 29 34 36 36 36 34 30 26 24 20 19 16 15 14 14 11 12 12 12 15 15 13 13 11 10 8 6
19 20 18 10 10 21 29 32 35 36 34 34 30 26 24 21 19 16 14 12 11 10 7 9 11 13 15 13 13 13 12 11 10
13 16 15 15 13 15 23 28 31 33 31 31 29 27 23 22 19 17 16 15 14 13 11 9 7 11 13 10 11 9 11 11 12
13 13 12 9 10 14 18 21 26 28 24 23 25 24 22 19 18 13 17 18 18 16 14 10 7 6 7 7 9 11 12 12 11
12 15 15 12 9 10 14 18 24 22 22 19 16 17 20 18 17 18 24 21 19 17 15 13 12 11 10 9 8 10 11 12 14
12 14 18 15 11 10 19 16 20 16 20 21 14 16 23 22 24 26 26 27 24 17 14 6 6 8 11 12 11 10 9 9 10
13 14 13 11 14 13 16 17 18 19 16 14 19 17 24 29 28 32 33 28 15 11 9 7 10 10 9 8 8 8 9 10 9
9 4 6 6 3 11 19 22 16 15 16 15 14 18 22 22 19 17 15 13 12 11 10 11 13 11 10 9 7 7 6 6 7
8 9 8 6 8 10 13 14 16 13 13 11 12 16 18 23 23 19 15 14 13 12 11 12 11 11 9 6 3 3 3 6 6
9 7 9 10 11 9 6 2 1 10 16 15 12 15 19 25 24 19 16 13 11 8 11 14 14 12 9 5 5 4 2 3 5
7 10 11 10 8 9 10 9 6 9 14 14 17 22 26 22 20 20 17 14 10 8 10 13 13 12 8 6 4 4 2 2 4
6 7 10 9 11 12 11 11 10 16 15 14 13 15 16 21 19 16 13 11 8 10 15 15 13 11 8 5 5 4 3 3 5
5 7 8 11 14 13 11 11 12 15 17 12 13 15 14 16 13 11 10 7 8 9 14 16 14 10 9 7 6 4 4 3 2
6 9 9 14 15 14 11 10 9 13 11 10 12 12 12 11 11 9 8 8 5 8 10 12 10 8 6 5 3 2 4 6 5
12 13 12 12 14 11 10 9 10 12 10 10 11 12 11 10 9 9 7 6 5 6 7 6 6 5 6 8 7 3 2 3 5
6 12 13 13 13 10 9 8 10 8 7 6 8 8 8 7 6 6 6 6 5 5 5 5 5 4 5 10 11 6 4 4 6
18 16 15 12 13 13 11 7 7 7 7 6 5 5 5 4 4 4 4 4 5 4 3 3 2 2 2 5 7 8 6 7 6
12 13 12 10 10 10 11 11 11 10 8 6 5 4 5 3 3 4 4 4 3 2 2 3 3 3 4 6 8 11 12 11 7

GFSFLT1_925_spd_114.txt.gz
Wind_Speed
12 12 14 15 21 24 26 29 31 33 35 33 30 28 24 20 18 17 16 15 13 13 14 15 15 13 11 12 9 7 10 7 6
11 12 13 15 17 22 25 27 31 37 38 35 32 28 23 20 17 15 14 14 11 11 13 12 14 16 15 13 12 9 8 8 6
11 11 13 15 19 22 26 31 39 36 37 38 34 28 24 20 18 15 13 12 11 11 10 12 12 12 16 15 15 12 12 11 9
23 19 17 16 21 26 30 29 31 37 35 36 34 30 25 21 17 15 11 10 10 10 6 8 10 12 12 16 14 14 14 13 12
18 19 17 14 18 20 24 27 28 33 34 35 34 29 25 22 18 15 13 11 9 9 10 9 9 10 11 14 11 12 14 14 14
11 14 15 11 14 20 18 20 23 27 32 34 32 28 24 22 21 19 16 13 9 10 12 12 11 9 11 14 13 12 12 14 14
7 8 11 9 10 15 17 21 23 26 28 31 29 28 26 25 23 18 16 9 14 11 13 16 16 13 11 12 11 12 13 13 14
10 11 12 10 9 10 19 23 23 24 24 20 24 28 29 27 20 13 12 12 13 19 16 15 13 14 15 14 13 12 10 10 11
6 7 9 8 7 12 15 15 18 16 15 14 14 18 24 22 15 14 13 17 20 20 21 20 15 9 8 11 11 12 10 11 10
7 6 5 7 3 7 14 18 21 18 15 16 18 19 15 15 20 21 13 20 23 26 19 15 13 12 14 12 10 10 9 6 4
9 7 6 5 7 8 6 11 17 16 17 20 20 16 15 17 18 17 18 20 20 18 18 17 17 15 10 9 6 6 5 3 5
9 8 7 8 9 8 7 7 12 16 13 13 14 17 17 20 19 18 21 24 23 21 16 14 12 9 7 5 3 3 3 5 6
9 10 10 10 10 9 10 6 7 12 15 19 15 11 11 13 15 15 19 16 12 9 12 13 13 11 8 5 3 3 2 1 2
10 10 12 14 14 13 10 7 9 12 17 11 10 13 8 5 7 17 18 17 14 10 12 14 13 11 8 5 4 4 1 2 3
7 9 12 14 17 16 12 11 14 18 20 14 12 13 12 5 6 8 14 13 11 13 15 16 15 12 8 6 5 4 3 1 1
6 9 10 16 18 18 16 15 15 19 15 14 14 17 18 14 13 7 9 8 9 10 13 16 14 11 8 6 4 3 4 4 3
6 8 11 15 15 17 18 16 17 16 13 15 16 19 19 15 12 10 8 7 6 8 10 10 10 8 7 6 6 4 0 2 3
8 11 14 13 12 15 15 15 15 12 12 11 14 15 14 13 12 10 10 8 6 5 6 6 6 6 6 7 8 6 3 3 4
10 12 11 10 8 11 11 12 12 10 9 10 11 12 10 8 8 8 8 7 7 5 4 3 2 2 1 2 3 5 5 5 6
9 9 7 8 8 8 9 9 8 7 8 8 8 9 8 6 5 4 4 4 3 3 1 0 1 2 2 3 4 6 9 12 11

GFSFLT1_925_spd_117.txt.gz
Wind_Speed
18 22 21 21 25 27 28 27 25 24 25 25 23 21 21 20 18 13 12 11 9 9 10 11 13 14 12 13 12 8 9 7 6
18 17 21 22 26 26 28 27 26 27 26 25 23 22 20 19 18 16 12 13 12 9 11 9 13 15 15 13 12 11 8 8 9
21 16 18 19 23 27 27 27 26 24 25 27 26 23 21 19 16 16 14 12 12 11 10 10 10 11 13 13 13 13 12 10 10
20 16 16 16 19 23 27 25 24 24 23 23 24 24 21 19 17 16 15 12 11 10 10 6 9 9 11 13 14 15 14 13 12
18 17 14 13 17 19 22 26 24 23 22 22 23 22 22 23 19 16 15 13 10 8 7 6 6 7 10 11 13 14 14 13 13
16 15 12 10 12 16 20 24 23 22 22 23 21 20 21 22 22 20 16 14 12 9 7 7 7 8 9 10 11 10 11 13 14
11 13 15 13 13 14 19 19 19 19 21 26 23 21 21 21 22 20 18 16 14 11 7 5 7 9 9 9 9 11 12 14 14
10 12 17 17 16 15 17 18 16 14 18 25 20 23 21 23 26 24 20 18 13 8 12 6 4 4 8 11 11 12 12 10 10
11 11 12 12 10 13 15 19 14 13 13 17 23 19 20 24 25 22 20 17 15 13 11 9 6 7 8 5 8 14 14 13 12
7 8 9 9 10 9 11 13 18 13 11 12 13 10 9 16 23 25 19 13 13 14 12 14 14 10 10 10 9 11 10 10 9
8 8 7 7 10 10 10 13 19 18 19 17 12 12 14 17 21 17 20 19 15 15 12 12 10 12 13 13 13 14 10 7 6
8 9 8 8 6 9 10 10 12 20 19 20 16 19 19 19 23 22 18 15 16 13 10 13 15 16 13 11 9 9 6 7 7
8 11 10 9 10 11 9 4 8 12 17 14 14 15 14 15 18 18 16 15 16 12 15 17 16 14 11 8 5 5 3 2 2
8 9 10 9 11 13 10 7 8 8 10 9 11 10 9 5 0 7 11 10 10 12 13 15 13 13 11 9 5 4 1 1 2
8 10 10 10 12 13 14 12 15 17 16 9 8 8 7 9 9 11 10 9 8 10 14 18 16 12 10 8 7 5 3 1 1
9 11 10 10 12 15 15 18 20 21 15 13 12 12 12 14 16 13 14 9 7 10 13 16 13 9 9 9 7 6 4 2 2
9 10 10 10 12 15 16 16 19 20 18 18 19 19 17 17 17 16 10 9 3 8 8 9 10 10 7 5 4 3 2 1 2
9 9 8 9 12 16 15 13 15 16 14 14 16 16 17 18 17 17 12 8 7 9 7 7 6 5 3 3 4 4 3 1 3
11 9 9 11 12 13 12 13 14 16 14 11 13 13 11 12 12 12 10 10 11 9 8 6 5 4 2 1 2 3 5 4 4
10 10 13 14 13 13 13 12 13 14 14 14 14 13 11 9 8 7 7 6 6 5 4 4 2 0 1 3 3 4 6 8 9

GFSFLT1_925_spd_120.txt.gz
Wind_Speed
22 23 23 23 22 24 24 25 24 23 23 23 23 20 19 16 15 13 13 12 10 13 11 13 12 12 12 11 10 7 7 8 8
18 24 23 24 26 27 25 26 26 24 22 23 24 23 20 18 16 15 12 10 10 13 14 13 13 13 14 13 12 12 10 9 10
14 19 22 22 22 27 26 26 26 23 22 22 22 21 20 18 17 15 14 12 11 10 10 9 9 10 12 15 14 14 13 10 9
15 13 15 18 21 26 26 26 25 24 22 21 22 21 20 18 17 15 13 13 12 11 10 9 9 9 10 11 11 12 13 12 11
12 13 15 9 18 22 25 26 25 24 22 21 21 21 21 19 18 16 15 15 13 10 9 9 8 8 8 8 11 12 13 13 13
6 10 12 9 6 13 16 17 22 23 22 22 20 20 20 20 19 18 17 15 14 12 10 9 9 8 8 8 10 11 12 11 12
10 11 14 12 10 15 18 20 19 20 19 20 20 20 20 20 21 20 18 17 16 14 11 10 10 9 8 8 8 9 10 11 11
9 13 17 16 11 9 16 17 18 16 16 16 17 19 19 20 21 20 18 17 17 15 13 10 9 8 8 9 9 7 6 6 8
9 11 11 16 14 17 15 19 18 15 14 13 16 15 18 17 17 18 18 18 17 15 12 11 11 10 8 6 7 9 6 9 8
2 3 4 5 10 16 16 15 18 17 10 9 9 14 13 14 15 19 20 19 17 14 13 12 14 12 9 7 6 6 5 6 4
7 6 5 4 6 11 18 20 16 15 11 9 7 9 9 9 12 10 14 18 16 11 10 14 14 12 11 8 10 9 8 6 6
7 6 7 8 10 7 11 14 12 11 7 8 12 12 11 11 16 14 19 19 17 18 18 15 12 8 7 7 7 6 6 4 2
5 10 9 7 8 8 9 10 14 17 20 16 16 11 11 12 11 13 18 19 16 19 20 15 11 10 8 4 1 3 4 3 4
11 11 10 9 12 12 8 7 6 11 16 15 13 12 10 6 2 2 13 12 8 10 14 15 15 12 9 7 5 2 3 4 2
8 10 10 12 13 15 13 9 12 15 15 11 13 13 10 7 5 7 7 5 6 6 11 9 8 13 11 7 4 3 1 2 3
8 9 10 12 15 17 18 16 16 19 11 10 10 11 12 13 11 11 11 13 12 12 9 10 10 9 10 7 6 3 2 2 2
9 10 11 13 15 17 15 18 21 20 16 16 18 18 14 12 13 13 12 10 10 11 11 8 5 6 8 8 5 3 2 2 4
12 12 11 12 14 15 15 13 15 14 15 17 21 20 17 14 13 15 16 18 16 15 10 9 8 6 5 3 5 4 4 3 3
14 14 13 14 14 15 15 13 14 14 12 14 14 14 14 11 14 12 14 17 15 11 9 8 7 6 5 5 5 4 4 4 4
16 15 14 15 15 14 14 14 14 13 13 13 13 14 12 10 10 10 10 9 7 8 5 5 4 3 3 2 2 2 3 5 7

GFSFLT1_925_spd_123.txt.gz
Wind_Speed
22 20 23 23 19 24 28 22 24 22 23 22 23 21 19 17 14 14 13 12 10 11 12 9 6 7 10 10 9 9 8 9 8
18 23 20 19 20 28 29 26 24 24 23 23 23 23 20 18 16 15 13 9 13 11 11 10 10 12 12 13 12 13 11 11 10
20 20 19 17 16 25 27 26 26 24 24 24 24 23 22 20 19 17 15 13 10 11 13 12 9 11 13 14 14 13 13 13 15
16 15 14 18 11 23 29 27 26 25 24 23 23 23 22 20 20 19 17 16 13 13 11 11 12 13 14 14 14 15 14 16 14
6 12 13 10 11 22 25 29 27 27 25 24 22 22 20 21 18 18 18 16 15 12 13 13 13 12 12 11 12 13 14 15 16
1 9 9 8 5 9 19 27 27 28 26 24 23 22 22 20 19 18 16 15 14 14 12 11 11 10 11 12 10 11 12 12 13
5 6 6 2 5 8 4 17 23 22 25 24 22 22 22 21 20 19 18 16 15 15 13 12 12 11 11 10 10 10 11 12 12
10 9 14 9 8 7 8 5 13 11 16 23 22 21 21 21 20 18 17 14 15 15 15 14 13 13 13 12 11 12 12 10 11
9 13 15 16 17 16 17 15 17 18 13 10 14 16 16 17 18 15 15 15 15 15 15 15 13 12 10 10 11 10 10 10 9
5 11 5 9 14 16 20 19 19 18 16 14 11 13 16 13 12 14 15 17 18 18 17 15 13 11 12 9 9 8 7 7 5
10 13 14 11 6 10 17 17 19 17 15 14 11 12 13 11 9 9 10 14 16 16 14 15 13 13 13 10 11 9 9 7 5
9 10 9 10 10 7 15 17 19 19 13 9 9 10 9 7 4 5 6 8 15 15 12 10 11 13 13 12 9 7 5 4 5
6 20 11 11 11 7 7 10 18 17 15 12 12 9 6 3 0 4 5 10 13 14 16 16 18 18 14 10 6 5 3 3 3
10 19 12 9 11 9 8 2 9 17 14 14 13 12 8 2 3 0 7 10 12 7 3 8 10 10 12 10 9 8 5 3 2
11 16 12 10 10 10 13 9 11 16 14 13 16 12 10 11 10 10 9 5 8 11 10 8 9 11 9 8 7 7 6 4 4
13 16 15 14 13 18 20 15 15 18 12 12 17 18 14 11 13 12 12 12 14 14 12 10 12 10 11 7 6 7 9 9 6
13 16 13 15 17 18 17 22 22 19 14 12 15 18 17 15 17 16 11 11 12 11 8 8 7 9 11 5 4 4 3 0 2
14 16 12 14 16 16 15 15 17 19 21 22 24 21 19 16 15 14 14 13 11 10 10 8 8 6 6 6 3 3 5 4 2
15 14 14 14 16 16 15 15 15 15 13 12 15 16 14 13 14 12 13 16 15 13 12 11 10 7 4 3 3 3 3 4 5
15 15 15 15 15 16 15 16 16 13 12 13 15 14 11 8 11 10 11 10 9 10 8 7 5 3 2 1 1 2 3 4 6

GFSFLT1_925_spd_129.txt.gz
Wind_Speed
13 19 11 18 15 15 32 35 36 35 37 36 35 33 28 25 22 13 13 17 17 16 16 16 16 13 16 12 9 8 9 7 7
13 14 13 15 16 21 34 33 36 39 37 35 38 35 31 27 24 21 19 17 21 14 14 11 14 14 15 12 11 10 10 10 11
6 14 12 16 10 25 33 37 37 38 39 40 41 38 34 30 28 26 20 13 16 17 11 9 13 11 12 14 13 13 13 13 12
7 9 2 10 2 11 18 25 31 36 37 34 34 37 35 33 31 28 26 19 14 17 13 10 11 12 12 12 12 13 14 13 13
3 3 10 14 10 9 3 7 22 24 33 35 35 37 35 33 33 30 28 25 21 19 16 13 14 13 11 11 12 14 13 13 14
4 6 7 8 5 9 17 16 8 13 24 31 35 32 35 34 32 31 30 28 24 22 19 16 14 13 13 11 10 10 10 12 12
5 6 5 1 6 6 9 10 25 19 15 26 34 35 33 33 35 34 32 29 25 20 19 17 13 11 11 10 10 9 8 7 8
8 2 12 12 4 3 6 11 11 17 23 19 13 32 34 33 34 31 30 25 19 19 17 16 12 11 10 9 9 8 7 7 9
11 9 8 7 12 10 4 12 19 21 32 20 14 28 30 34 33 30 25 23 21 20 18 14 15 15 8 10 12 8 5 3 6
5 3 4 5 7 14 18 17 7 16 11 23 19 41 32 37 30 30 27 24 20 19 20 18 14 13 11 10 9 8 6 6 4
4 3 3 3 3 14 31 23 14 5 9 16 17 21 22 31 29 26 23 21 20 18 16 14 12 11 12 11 8 7 8 8 6
3 1 5 7 8 14 16 9 17 9 8 19 28 25 7 14 13 12 11 11 13 12 9 8 11 12 12 9 6 8 6 6 6
5 2 7 9 6 5 9 5 6 7 10 12 15 18 18 17 18 19 16 9 8 9 9 11 7 7 5 6 4 5 8 6 7
10 10 5 5 7 6 5 7 5 8 12 11 19 22 23 26 28 26 21 16 10 11 13 13 11 11 10 8 7 9 10 11 12
7 7 4 9 12 9 9 4 14 11 9 8 14 16 21 21 25 28 21 23 15 18 15 19 17 19 15 13 11 10 10 7 6
8 4 7 8 8 10 10 8 8 22 8 13 19 18 21 23 24 27 25 26 21 20 21 22 21 18 16 12 12 11 8 7 7
8 8 8 8 12 12 14 16 13 25 16 18 21 22 28 23 23 21 22 21 18 18 19 17 17 17 16 13 11 7 8 8 9
12 12 9 7 10 16 19 19 19 17 20 22 24 22 23 24 23 22 21 17 15 13 12 11 12 10 10 11 8 6 5 6 5
13 15 13 11 13 16 17 21 26 23 24 24 26 22 19 19 19 19 19 19 18 15 14 13 13 12 9 9 7 6 6 5 5
19 15 14 14 14 16 18 18 20 16 20 22 22 24 17 17 20 20 21 20 21 19 14 13 12 11 11 9 9 7 6 6 6